Time,TemperatureF,DewpointF,PressureIn,WindDirection,WindDirectionDegrees,WindSpeedMPH,WindSpeedGustMPH,Humidity,HourlyPrecipIn,Conditions,Clouds,dailyrainin,SoftwareType,DateUTC
2013-09-23 00:00:00,55.8,46.3,29.85,North,0,0.0,0.0,70,0.00,,,0.00,WUHU216HW,2013-09-23 04:00:00,
2013-09-23 00:01:00,55.8,46.3,29.85,North,0,0.0,0.0,70,0.00,,,0.00,WUHU216HW,2013-09-23 04:01:00,
2013-09-23 00:02:00,55.8,46.3,29.85,North,0,0.0,0.0,70,0.00,,,0.00,WUHU216HW,2013-09-23 04:02:00,
2013-09-23 00:06:00,55.6,46.1,29.85,North,0,0.0,0.0,70,0.00,,,0.00,WUHU216HW,2013-09-23 04:06:00,
2013-09-23 00:07:00,55.6,46.1,29.85,North,0,0.0,0.0,70,0.00,,,0.00,WUHU216HW,2013-09-23 04:07:00,
2013-09-23 00:11:00,55.4,45.9,29.85,North,0,0.0,0.0,70,0.00,,,0.00,WUHU216HW,2013-09-23 04:11:00,
2013-09-23 00:12:00,55.4,45.9,29.85,North,0,0.0,0.0,70,0.00,,,0.00,WUHU216HW,2013-09-23 04:12:00,
2013-09-23 00:16:00,55.4,45.9,29.85,North,0,0.0,0.0,70,0.00,,,0.00,WUHU216HW,2013-09-23 04:16:00,
2013-09-23 00:17:00,55.4,45.9,29.85,North,0,0.0,0.0,70,0.00,,,0.00,WUHU216HW,2013-09-23 04:17:00,
2013-09-23 00:21:00,55.4,45.5,29.85,North,0,0.0,0.0,69,0.00,,,0.00,WUHU216HW,2013-09-23 04:21:00,
2013-09-23 00:22:00,55.4,45.5,29.85,North,0,0.0,0.0,69,0.00,,,0.00,WUHU216HW,2013-09-23 04:22:00,
2013-09-23 00:23:00,55.4,45.5,29.85,North,0,0.0,0.0,69,0.00,,,0.00,WUHU216HW,2013-09-23 04:23:00,
2013-09-23 00:26:00,55.6,45.6,29.84,North,0,0.0,0.0,69,0.00,,,0.00,WUHU216HW,2013-09-23 04:26:00,
2013-09-23 00:27:00,55.6,45.6,29.85,North,0,0.0,0.0,69,0.00,,,0.00,WUHU216HW,2013-09-23 04:27:00,
2013-09-23 00:28:00,55.8,45.4,29.84,North,0,0.0,0.0,68,0.00,,,0.00,WUHU216HW,2013-09-23 04:28:00,
2013-09-23 00:31:00,55.8,45.4,29.85,North,0,0.0,0.0,68,0.00,,,0.00,WUHU216HW,2013-09-23 04:31:00,
2013-09-23 00:32:00,55.8,45.4,29.84,North,0,0.0,0.0,68,0.00,,,0.00,WUHU216HW,2013-09-23 04:32:00,
2013-09-23 00:33:00,55.8,45.4,29.85,North,0,0.0,0.0,68,0.00,,,0.00,WUHU216HW,2013-09-23 04:33:00,
2013-09-23 00:34:00,55.8,45.0,29.84,North,0,0.0,0.0,67,0.00,,,0.00,WUHU216HW,2013-09-23 04:34:00,
2013-09-23 00:36:00,55.6,44.8,29.84,North,0,0.0,0.0,67,0.00,,,0.00,WUHU216HW,2013-09-23 04:36:00,
2013-09-23 00:37:00,55.4,44.6,29.84,North,0,0.0,0.0,67,0.00,,,0.00,WUHU216HW,2013-09-23 04:37:00,
2013-09-23 00:38:00,55.4,45.1,29.84,North,0,0.0,0.0,68,0.00,,,0.00,WUHU216HW,2013-09-23 04:38:00,
2013-09-23 00:39:00,55.3,44.9,29.84,North,0,0.0,0.0,68,0.00,,,0.00,WUHU216HW,2013-09-23 04:39:00,
2013-09-23 00:41:00,55.1,44.7,29.84,North,0,0.0,0.0,68,0.00,,,0.00,WUHU216HW,2013-09-23 04:41:00,
2013-09-23 00:42:00,55.1,44.7,29.84,North,0,0.0,0.0,68,0.00,,,0.00,WUHU216HW,2013-09-23 04:42:00,
2013-09-23 00:44:00,55.1,45.1,29.84,North,0,0.0,0.0,69,0.00,,,0.00,WUHU216HW,2013-09-23 04:44:00,
2013-09-23 00:46:00,54.9,44.9,29.84,North,0,0.0,0.0,69,0.00,,,0.00,WUHU216HW,2013-09-23 04:46:00,
2013-09-23 00:47:00,54.7,44.7,29.85,North,0,0.0,0.0,69,0.00,,,0.00,WUHU216HW,2013-09-23 04:47:00,
2013-09-23 00:48:00,54.7,44.7,29.85,North,0,0.0,0.0,69,0.00,,,0.00,WUHU216HW,2013-09-23 04:48:00,
2013-09-23 00:49:00,54.7,44.7,29.85,North,0,0.0,0.0,69,0.00,,,0.00,WUHU216HW,2013-09-23 04:49:00,
2013-09-23 00:50:00,54.7,45.2,29.85,North,0,0.0,0.0,70,0.00,,,0.00,WUHU216HW,2013-09-23 04:50:00,
2013-09-23 00:51:00,54.5,45.0,29.85,North,0,0.0,0.0,70,0.00,,,0.00,WUHU216HW,2013-09-23 04:51:00,
2013-09-23 00:53:00,54.5,45.0,29.85,North,0,0.0,0.0,70,0.00,,,0.00,WUHU216HW,2013-09-23 04:53:00,
2013-09-23 00:54:00,54.5,45.0,29.85,North,0,0.0,0.0,70,0.00,,,0.00,WUHU216HW,2013-09-23 04:54:00,
2013-09-23 00:55:00,54.4,44.8,29.85,North,0,0.0,0.0,70,0.00,,,0.00,WUHU216HW,2013-09-23 04:55:00,
2013-09-23 00:56:00,54.4,44.8,29.85,North,0,0.0,0.0,70,0.00,,,0.00,WUHU216HW,2013-09-23 04:56:00,
2013-09-23 00:58:00,54.4,44.8,29.85,North,0,0.0,0.0,70,0.00,,,0.00,WUHU216HW,2013-09-23 04:58:00,
2013-09-23 00:59:00,54.4,45.2,29.85,North,0,0.0,0.0,71,0.00,,,0.00,WUHU216HW,2013-09-23 04:59:00,
2013-09-23 01:00:00,54.4,45.2,29.85,North,0,0.0,0.0,71,0.00,,,0.00,WUHU216HW,2013-09-23 05:00:00,
2013-09-23 01:02:00,54.2,45.0,29.85,North,0,0.0,0.0,71,0.00,,,0.00,WUHU216HW,2013-09-23 05:02:00,
2013-09-23 01:03:00,54.2,45.0,29.86,North,0,0.0,0.0,71,0.00,,,0.00,WUHU216HW,2013-09-23 05:03:00,
2013-09-23 01:05:00,54.2,45.0,29.86,North,0,0.0,0.0,71,0.00,,,0.00,WUHU216HW,2013-09-23 05:05:00,
2013-09-23 01:07:00,54.0,44.8,29.86,North,0,0.0,0.0,71,0.00,,,0.00,WUHU216HW,2013-09-23 05:07:00,
2013-09-23 01:08:00,54.0,44.8,29.86,North,0,0.0,0.0,71,0.00,,,0.00,WUHU216HW,2013-09-23 05:08:00,
2013-09-23 01:10:00,54.0,44.8,29.86,North,0,0.0,0.0,71,0.00,,,0.00,WUHU216HW,2013-09-23 05:10:00,
2013-09-23 01:12:00,54.0,44.8,29.86,North,0,0.0,0.0,71,0.00,,,0.00,WUHU216HW,2013-09-23 05:12:00,
2013-09-23 01:13:00,54.0,44.8,29.86,North,0,0.0,0.0,71,0.00,,,0.00,WUHU216HW,2013-09-23 05:13:00,
2013-09-23 01:15:00,54.0,44.8,29.86,North,0,0.0,0.0,71,0.00,,,0.00,WUHU216HW,2013-09-23 05:15:00,
2013-09-23 01:16:00,54.0,44.5,29.86,North,0,0.0,0.0,70,0.00,,,0.00,WUHU216HW,2013-09-23 05:16:00,
2013-09-23 01:17:00,54.0,44.5,29.86,North,0,0.0,0.0,70,0.00,,,0.00,WUHU216HW,2013-09-23 05:17:00,
2013-09-23 01:19:00,54.0,44.5,29.86,North,0,0.0,0.0,70,0.00,,,0.00,WUHU216HW,2013-09-23 05:19:00,
2013-09-23 01:20:00,54.0,44.5,29.86,North,0,0.0,0.0,70,0.00,,,0.00,WUHU216HW,2013-09-23 05:20:00,
2013-09-23 01:21:00,54.0,44.5,29.86,North,0,0.0,0.0,70,0.00,,,0.00,WUHU216HW,2013-09-23 05:21:00,
2013-09-23 01:22:00,54.0,44.5,29.86,North,0,0.0,0.0,70,0.00,,,0.00,WUHU216HW,2013-09-23 05:22:00,
2013-09-23 01:24:00,54.0,44.5,29.86,North,0,0.0,0.0,70,0.00,,,0.00,WUHU216HW,2013-09-23 05:24:00,
2013-09-23 01:25:00,54.0,44.5,29.86,North,0,0.0,0.0,70,0.00,,,0.00,WUHU216HW,2013-09-23 05:25:00,
2013-09-23 01:26:00,54.0,44.5,29.86,North,0,0.0,0.0,70,0.00,,,0.00,WUHU216HW,2013-09-23 05:26:00,
2013-09-23 01:27:00,54.0,44.5,29.86,North,0,0.0,0.0,70,0.00,,,0.00,WUHU216HW,2013-09-23 05:27:00,
2013-09-23 01:29:00,53.8,43.9,29.86,North,0,0.0,0.0,69,0.00,,,0.00,WUHU216HW,2013-09-23 05:29:00,
2013-09-23 01:30:00,53.8,43.9,29.86,North,0,0.0,0.0,69,0.00,,,0.00,WUHU216HW,2013-09-23 05:30:00,
2013-09-23 01:31:00,53.8,43.9,29.86,North,0,0.0,0.0,69,0.00,,,0.00,WUHU216HW,2013-09-23 05:31:00,
2013-09-23 01:32:00,53.8,43.9,29.86,North,0,0.0,0.0,69,0.00,,,0.00,WUHU216HW,2013-09-23 05:32:00,
2013-09-23 01:33:00,53.8,43.9,29.86,North,0,0.0,0.0,69,0.00,,,0.00,WUHU216HW,2013-09-23 05:33:00,
2013-09-23 01:34:00,53.8,44.3,29.86,North,0,0.0,0.0,70,0.00,,,0.00,WUHU216HW,2013-09-23 05:34:00,
2013-09-23 01:35:00,53.8,44.3,29.86,North,0,0.0,0.0,70,0.00,,,0.00,WUHU216HW,2013-09-23 05:35:00,
2013-09-23 01:36:00,53.8,44.3,29.86,North,0,0.0,0.0,70,0.00,,,0.00,WUHU216HW,2013-09-23 05:36:00,
2013-09-23 01:37:00,53.8,44.3,29.86,North,0,0.0,0.0,70,0.00,,,0.00,WUHU216HW,2013-09-23 05:37:00,
2013-09-23 01:38:00,53.8,44.3,29.86,North,0,0.0,0.0,70,0.00,,,0.00,WUHU216HW,2013-09-23 05:38:00,
2013-09-23 01:40:00,53.6,44.1,29.86,North,0,0.0,0.0,70,0.00,,,0.00,WUHU216HW,2013-09-23 05:40:00,
2013-09-23 01:41:00,53.6,44.1,29.86,North,0,0.0,0.0,70,0.00,,,0.00,WUHU216HW,2013-09-23 05:41:00,
2013-09-23 01:43:00,53.6,44.1,29.87,North,0,0.0,0.0,70,0.00,,,0.00,WUHU216HW,2013-09-23 05:43:00,
2013-09-23 01:45:00,53.6,44.1,29.87,North,0,0.0,0.0,70,0.00,,,0.00,WUHU216HW,2013-09-23 05:45:00,
2013-09-23 01:46:00,53.6,44.1,29.87,North,0,0.0,0.0,70,0.00,,,0.00,WUHU216HW,2013-09-23 05:46:00,
2013-09-23 01:48:00,53.6,43.8,29.87,North,0,0.0,0.0,69,0.00,,,0.00,WUHU216HW,2013-09-23 05:48:00,
2013-09-23 01:50:00,53.6,43.8,29.87,North,0,0.0,0.0,69,0.00,,,0.00,WUHU216HW,2013-09-23 05:50:00,
2013-09-23 01:51:00,53.6,43.8,29.87,North,0,0.0,0.0,69,0.00,,,0.00,WUHU216HW,2013-09-23 05:51:00,
2013-09-23 01:52:00,53.6,43.8,29.87,North,0,0.0,0.0,69,0.00,,,0.00,WUHU216HW,2013-09-23 05:52:00,
2013-09-23 01:53:00,53.5,43.9,29.87,North,0,0.0,0.0,70,0.00,,,0.00,WUHU216HW,2013-09-23 05:53:00,
2013-09-23 01:56:00,53.5,43.9,29.87,North,0,0.0,0.0,70,0.00,,,0.00,WUHU216HW,2013-09-23 05:56:00,
2013-09-23 01:57:00,53.5,43.9,29.87,North,0,0.0,0.0,70,0.00,,,0.00,WUHU216HW,2013-09-23 05:57:00,
2013-09-23 01:58:00,53.5,43.9,29.87,North,0,0.0,0.0,70,0.00,,,0.00,WUHU216HW,2013-09-23 05:58:00,
2013-09-23 01:59:00,53.5,43.9,29.87,North,0,0.0,0.0,70,0.00,,,0.00,WUHU216HW,2013-09-23 05:59:00,
2013-09-23 02:01:00,53.5,43.9,29.87,North,0,0.0,0.0,70,0.00,,,0.00,WUHU216HW,2013-09-23 06:01:00,
2013-09-23 02:02:00,53.3,43.7,29.87,North,0,0.0,0.0,70,0.00,,,0.00,WUHU216HW,2013-09-23 06:02:00,
2013-09-23 02:03:00,53.3,43.7,29.87,North,0,0.0,0.0,70,0.00,,,0.00,WUHU216HW,2013-09-23 06:03:00,
2013-09-23 02:04:00,53.3,43.7,29.87,North,0,0.0,0.0,70,0.00,,,0.00,WUHU216HW,2013-09-23 06:04:00,
2013-09-23 02:06:00,53.3,43.7,29.87,North,0,0.0,0.0,70,0.00,,,0.00,WUHU216HW,2013-09-23 06:06:00,
2013-09-23 02:07:00,53.3,43.7,29.87,North,0,0.0,0.0,70,0.00,,,0.00,WUHU216HW,2013-09-23 06:07:00,
2013-09-23 02:08:00,53.3,43.7,29.87,North,0,0.0,0.0,70,0.00,,,0.00,WUHU216HW,2013-09-23 06:08:00,
2013-09-23 02:10:00,53.3,43.7,29.87,North,0,0.0,0.0,70,0.00,,,0.00,WUHU216HW,2013-09-23 06:10:00,
2013-09-23 02:11:00,53.3,43.7,29.87,North,0,0.0,0.0,70,0.00,,,0.00,WUHU216HW,2013-09-23 06:11:00,
2013-09-23 02:13:00,53.3,43.7,29.87,North,0,0.0,0.0,70,0.00,,,0.00,WUHU216HW,2013-09-23 06:13:00,
2013-09-23 02:15:00,53.1,43.7,29.87,North,0,0.0,0.0,70,0.00,,,0.00,WUHU216HW,2013-09-23 06:15:00,
2013-09-23 02:16:00,53.1,43.7,29.87,North,0,0.0,0.0,70,0.00,,,0.00,WUHU216HW,2013-09-23 06:16:00,
2013-09-23 02:18:00,53.1,43.7,29.87,North,0,0.0,0.0,70,0.00,,,0.00,WUHU216HW,2013-09-23 06:18:00,
2013-09-23 02:20:00,52.9,43.5,29.87,North,0,0.0,0.0,70,0.00,,,0.00,WUHU216HW,2013-09-23 06:20:00,
2013-09-23 02:21:00,52.9,43.5,29.87,North,0,0.0,0.0,70,0.00,,,0.00,WUHU216HW,2013-09-23 06:21:00,
2013-09-23 02:23:00,52.9,43.5,29.87,North,0,0.0,0.0,70,0.00,,,0.00,WUHU216HW,2013-09-23 06:23:00,
2013-09-23 02:26:00,52.9,43.8,29.87,North,0,0.0,0.0,71,0.00,,,0.00,WUHU216HW,2013-09-23 06:26:00,
2013-09-23 02:28:00,52.9,43.8,29.87,North,0,0.0,0.0,71,0.00,,,0.00,WUHU216HW,2013-09-23 06:28:00,
2013-09-23 02:29:00,52.9,43.8,29.87,North,0,0.0,0.0,71,0.00,,,0.00,WUHU216HW,2013-09-23 06:29:00,
2013-09-23 02:30:00,52.9,43.8,29.87,North,0,0.0,0.0,71,0.00,,,0.00,WUHU216HW,2013-09-23 06:30:00,
2013-09-23 02:31:00,52.9,43.8,29.87,North,0,0.0,0.0,71,0.00,,,0.00,WUHU216HW,2013-09-23 06:31:00,
2013-09-23 02:32:00,52.7,43.7,29.87,North,0,0.0,0.0,71,0.00,,,0.00,WUHU216HW,2013-09-23 06:32:00,
2013-09-23 02:33:00,52.7,43.7,29.87,North,0,0.0,0.0,71,0.00,,,0.00,WUHU216HW,2013-09-23 06:33:00,
2013-09-23 02:34:00,52.7,43.7,29.87,North,0,0.0,0.0,71,0.00,,,0.00,WUHU216HW,2013-09-23 06:34:00,
2013-09-23 02:35:00,52.7,43.7,29.87,North,0,0.0,0.0,71,0.00,,,0.00,WUHU216HW,2013-09-23 06:35:00,
2013-09-23 02:36:00,52.7,43.7,29.87,North,0,0.0,0.0,71,0.00,,,0.00,WUHU216HW,2013-09-23 06:36:00,
2013-09-23 02:37:00,52.7,43.7,29.87,North,0,0.0,0.0,71,0.00,,,0.00,WUHU216HW,2013-09-23 06:37:00,
2013-09-23 02:38:00,52.7,43.7,29.88,North,0,0.0,0.0,71,0.00,,,0.00,WUHU216HW,2013-09-23 06:38:00,
2013-09-23 02:39:00,52.7,43.7,29.87,North,0,0.0,0.0,71,0.00,,,0.00,WUHU216HW,2013-09-23 06:39:00,
2013-09-23 02:40:00,52.6,43.5,29.87,North,0,0.0,0.0,71,0.00,,,0.00,WUHU216HW,2013-09-23 06:40:00,
2013-09-23 02:41:00,52.6,43.5,29.87,North,0,0.0,0.0,71,0.00,,,0.00,WUHU216HW,2013-09-23 06:41:00,
2013-09-23 02:42:00,52.6,43.5,29.88,North,0,0.0,0.0,71,0.00,,,0.00,WUHU216HW,2013-09-23 06:42:00,
2013-09-23 02:43:00,52.6,43.5,29.88,North,0,0.0,0.0,71,0.00,,,0.00,WUHU216HW,2013-09-23 06:43:00,
2013-09-23 02:44:00,52.6,43.5,29.88,North,0,0.0,0.0,71,0.00,,,0.00,WUHU216HW,2013-09-23 06:44:00,
2013-09-23 02:45:00,52.6,43.5,29.88,North,0,0.0,0.0,71,0.00,,,0.00,WUHU216HW,2013-09-23 06:45:00,
2013-09-23 02:46:00,52.6,43.5,29.88,North,0,0.0,0.0,71,0.00,,,0.00,WUHU216HW,2013-09-23 06:46:00,
2013-09-23 02:47:00,52.4,43.3,29.88,North,0,0.0,0.0,71,0.00,,,0.00,WUHU216HW,2013-09-23 06:47:00,
2013-09-23 02:48:00,52.4,43.3,29.88,North,0,0.0,0.0,71,0.00,,,0.00,WUHU216HW,2013-09-23 06:48:00,
2013-09-23 02:49:00,52.4,43.3,29.88,North,0,0.0,0.0,71,0.00,,,0.00,WUHU216HW,2013-09-23 06:49:00,
2013-09-23 02:51:00,52.4,43.3,29.88,North,0,0.0,0.0,71,0.00,,,0.00,WUHU216HW,2013-09-23 06:51:00,
2013-09-23 02:52:00,52.4,43.3,29.88,North,0,0.0,0.0,71,0.00,,,0.00,WUHU216HW,2013-09-23 06:52:00,
2013-09-23 02:53:00,52.2,43.1,29.88,North,0,0.0,0.0,71,0.00,,,0.00,WUHU216HW,2013-09-23 06:53:00,
2013-09-23 02:54:00,52.2,43.1,29.88,North,0,0.0,0.0,71,0.00,,,0.00,WUHU216HW,2013-09-23 06:54:00,
2013-09-23 02:56:00,52.2,43.5,29.88,North,0,0.0,0.0,72,0.00,,,0.00,WUHU216HW,2013-09-23 06:56:00,
2013-09-23 02:57:00,52.2,43.5,29.88,North,0,0.0,0.0,72,0.00,,,0.00,WUHU216HW,2013-09-23 06:57:00,
2013-09-23 02:58:00,52.2,43.5,29.88,North,0,0.0,0.0,72,0.00,,,0.00,WUHU216HW,2013-09-23 06:58:00,
2013-09-23 03:00:00,52.2,43.5,29.88,North,0,0.0,0.0,72,0.00,,,0.00,WUHU216HW,2013-09-23 07:00:00,
2013-09-23 03:02:00,52.2,43.1,29.88,North,0,0.0,0.0,71,0.00,,,0.00,WUHU216HW,2013-09-23 07:02:00,
2013-09-23 03:03:00,52.2,43.1,29.88,North,0,0.0,0.0,71,0.00,,,0.00,WUHU216HW,2013-09-23 07:03:00,
2013-09-23 03:04:00,52.2,43.1,29.88,North,0,0.0,0.0,71,0.00,,,0.00,WUHU216HW,2013-09-23 07:04:00,
2013-09-23 03:05:00,52.2,43.1,29.88,North,0,0.0,0.0,71,0.00,,,0.00,WUHU216HW,2013-09-23 07:05:00,
2013-09-23 03:07:00,52.2,43.1,29.88,North,0,0.0,0.0,71,0.00,,,0.00,WUHU216HW,2013-09-23 07:07:00,
2013-09-23 03:08:00,52.2,43.1,29.88,North,0,0.0,0.0,71,0.00,,,0.00,WUHU216HW,2013-09-23 07:08:00,
2013-09-23 03:09:00,52.2,43.1,29.88,North,0,0.0,0.0,71,0.00,,,0.00,WUHU216HW,2013-09-23 07:09:00,
2013-09-23 03:10:00,52.2,43.1,29.88,North,0,0.0,0.0,71,0.00,,,0.00,WUHU216HW,2013-09-23 07:10:00,
2013-09-23 03:12:00,52.2,43.1,29.88,North,0,0.0,0.0,71,0.00,,,0.00,WUHU216HW,2013-09-23 07:12:00,
2013-09-23 03:13:00,52.2,43.1,29.88,North,0,0.0,0.0,71,0.00,,,0.00,WUHU216HW,2013-09-23 07:13:00,
2013-09-23 03:14:00,52.2,43.1,29.88,North,0,0.0,0.0,71,0.00,,,0.00,WUHU216HW,2013-09-23 07:14:00,
2013-09-23 03:15:00,52.2,43.1,29.88,North,0,0.0,0.0,71,0.00,,,0.00,WUHU216HW,2013-09-23 07:15:00,
2013-09-23 03:18:00,52.2,43.1,29.88,North,0,0.0,0.0,71,0.00,,,0.00,WUHU216HW,2013-09-23 07:18:00,
2013-09-23 03:19:00,52.2,43.1,29.88,North,0,0.0,0.0,71,0.00,,,0.00,WUHU216HW,2013-09-23 07:19:00,
2013-09-23 03:20:00,52.2,43.1,29.88,North,0,0.0,0.0,71,0.00,,,0.00,WUHU216HW,2013-09-23 07:20:00,
2013-09-23 03:23:00,52.2,43.1,29.88,North,0,0.0,0.0,71,0.00,,,0.00,WUHU216HW,2013-09-23 07:23:00,
2013-09-23 03:24:00,52.2,43.1,29.88,North,0,0.0,0.0,71,0.00,,,0.00,WUHU216HW,2013-09-23 07:24:00,
2013-09-23 03:25:00,52.2,43.1,29.88,North,0,0.0,0.0,71,0.00,,,0.00,WUHU216HW,2013-09-23 07:25:00,
2013-09-23 03:28:00,52.2,43.1,29.88,North,0,0.0,0.0,71,0.00,,,0.00,WUHU216HW,2013-09-23 07:28:00,
2013-09-23 03:29:00,52.0,43.0,29.88,North,0,0.0,0.0,71,0.00,,,0.00,WUHU216HW,2013-09-23 07:29:00,
2013-09-23 03:30:00,52.0,43.0,29.88,North,0,0.0,0.0,71,0.00,,,0.00,WUHU216HW,2013-09-23 07:30:00,
2013-09-23 03:33:00,51.8,42.5,29.88,North,0,0.0,0.0,70,0.00,,,0.00,WUHU216HW,2013-09-23 07:33:00,
2013-09-23 03:34:00,51.8,42.5,29.88,North,0,0.0,0.0,70,0.00,,,0.00,WUHU216HW,2013-09-23 07:34:00,
2013-09-23 03:35:00,51.8,42.9,29.88,North,0,0.0,0.0,71,0.00,,,0.00,WUHU216HW,2013-09-23 07:35:00,
2013-09-23 03:38:00,51.7,42.7,29.88,North,0,0.0,0.0,71,0.00,,,0.00,WUHU216HW,2013-09-23 07:38:00,
2013-09-23 03:39:00,51.7,42.7,29.88,North,0,0.0,0.0,71,0.00,,,0.00,WUHU216HW,2013-09-23 07:39:00,
2013-09-23 03:40:00,51.7,42.7,29.88,North,0,0.0,0.0,71,0.00,,,0.00,WUHU216HW,2013-09-23 07:40:00,
2013-09-23 03:44:00,51.5,42.5,29.88,North,0,0.0,0.0,71,0.00,,,0.00,WUHU216HW,2013-09-23 07:44:00,
2013-09-23 03:45:00,51.5,42.5,29.88,North,0,0.0,0.0,71,0.00,,,0.00,WUHU216HW,2013-09-23 07:45:00,
2013-09-23 03:49:00,51.5,42.9,29.88,North,0,0.0,0.0,72,0.00,,,0.00,WUHU216HW,2013-09-23 07:49:00,
2013-09-23 03:50:00,51.5,42.5,29.88,North,0,0.0,0.0,71,0.00,,,0.00,WUHU216HW,2013-09-23 07:50:00,
2013-09-23 03:51:00,51.5,42.5,29.88,North,0,0.0,0.0,71,0.00,,,0.00,WUHU216HW,2013-09-23 07:51:00,
2013-09-23 03:54:00,51.5,42.5,29.88,North,0,0.0,0.0,71,0.00,,,0.00,WUHU216HW,2013-09-23 07:54:00,
2013-09-23 03:55:00,51.5,42.5,29.88,North,0,0.0,0.0,71,0.00,,,0.00,WUHU216HW,2013-09-23 07:55:00,
2013-09-23 03:56:00,51.5,42.5,29.88,North,0,0.0,0.0,71,0.00,,,0.00,WUHU216HW,2013-09-23 07:56:00,
2013-09-23 03:59:00,51.3,42.3,29.88,North,0,0.0,0.0,71,0.00,,,0.00,WUHU216HW,2013-09-23 07:59:00,
2013-09-23 04:00:00,51.3,42.3,29.88,North,0,0.0,0.0,71,0.00,,,0.00,WUHU216HW,2013-09-23 08:00:00,
2013-09-23 04:01:00,51.3,42.3,29.88,North,0,0.0,0.0,71,0.00,,,0.00,WUHU216HW,2013-09-23 08:01:00,
2013-09-23 04:04:00,51.3,42.3,29.88,North,0,0.0,0.0,71,0.00,,,0.00,WUHU216HW,2013-09-23 08:04:00,
2013-09-23 04:05:00,51.1,42.1,29.88,North,0,0.0,0.0,71,0.00,,,0.00,WUHU216HW,2013-09-23 08:05:00,
2013-09-23 04:06:00,51.1,42.1,29.88,North,0,0.0,0.0,71,0.00,,,0.00,WUHU216HW,2013-09-23 08:06:00,
2013-09-23 04:10:00,51.1,42.5,29.89,North,0,0.0,0.0,72,0.00,,,0.00,WUHU216HW,2013-09-23 08:10:00,
2013-09-23 04:11:00,51.1,42.5,29.89,North,0,0.0,0.0,72,0.00,,,0.00,WUHU216HW,2013-09-23 08:11:00,
2013-09-23 04:15:00,51.1,42.5,29.89,North,0,0.0,0.0,72,0.00,,,0.00,WUHU216HW,2013-09-23 08:15:00,
2013-09-23 04:16:00,51.1,42.5,29.89,North,0,0.0,0.0,72,0.00,,,0.00,WUHU216HW,2013-09-23 08:16:00,
2013-09-23 04:20:00,50.9,42.3,29.89,North,0,0.0,0.0,72,0.00,,,0.00,WUHU216HW,2013-09-23 08:20:00,
2013-09-23 04:21:00,50.9,42.3,29.89,North,0,0.0,0.0,72,0.00,,,0.00,WUHU216HW,2013-09-23 08:21:00,
2013-09-23 04:25:00,50.9,42.3,29.89,North,0,0.0,0.0,72,0.00,,,0.00,WUHU216HW,2013-09-23 08:25:00,
2013-09-23 04:26:00,50.9,42.3,29.89,North,0,0.0,0.0,72,0.00,,,0.00,WUHU216HW,2013-09-23 08:26:00,
2013-09-23 04:27:00,50.9,42.3,29.89,North,0,0.0,0.0,72,0.00,,,0.00,WUHU216HW,2013-09-23 08:27:00,
2013-09-23 04:30:00,50.9,42.3,29.89,North,0,0.0,0.0,72,0.00,,,0.00,WUHU216HW,2013-09-23 08:30:00,
2013-09-23 04:31:00,50.8,42.1,29.89,North,0,0.0,0.0,72,0.00,,,0.00,WUHU216HW,2013-09-23 08:31:00,
2013-09-23 04:32:00,50.8,42.1,29.89,North,0,0.0,0.0,72,0.00,,,0.00,WUHU216HW,2013-09-23 08:32:00,
2013-09-23 04:35:00,50.8,42.1,29.89,North,0,0.0,0.0,72,0.00,,,0.00,WUHU216HW,2013-09-23 08:35:00,
2013-09-23 04:36:00,50.8,42.1,29.89,North,0,0.0,0.0,72,0.00,,,0.00,WUHU216HW,2013-09-23 08:36:00,
2013-09-23 04:37:00,50.8,42.1,29.89,North,0,0.0,0.0,72,0.00,,,0.00,WUHU216HW,2013-09-23 08:37:00,
2013-09-23 04:41:00,50.8,42.1,29.89,North,0,0.0,0.0,72,0.00,,,0.00,WUHU216HW,2013-09-23 08:41:00,
2013-09-23 04:42:00,50.8,42.1,29.89,North,0,0.0,0.0,72,0.00,,,0.00,WUHU216HW,2013-09-23 08:42:00,
2013-09-23 04:47:00,50.6,42.0,29.89,North,0,0.0,0.0,72,0.00,,,0.00,WUHU216HW,2013-09-23 08:47:00,
2013-09-23 04:52:00,50.4,41.8,29.89,North,0,0.0,0.0,72,0.00,,,0.00,WUHU216HW,2013-09-23 08:52:00,
2013-09-23 04:53:00,50.6,42.0,29.89,North,0,0.0,0.0,72,0.00,,,0.00,WUHU216HW,2013-09-23 08:53:00,
2013-09-23 04:54:00,50.6,42.0,29.89,North,0,0.0,0.0,72,0.00,,,0.00,WUHU216HW,2013-09-23 08:54:00,
2013-09-23 04:57:00,50.4,42.0,29.89,North,0,0.0,0.0,73,0.00,,,0.00,WUHU216HW,2013-09-23 08:57:00,
2013-09-23 04:58:00,50.4,42.0,29.89,North,0,0.0,0.0,73,0.00,,,0.00,WUHU216HW,2013-09-23 08:58:00,
2013-09-23 04:59:00,50.4,42.0,29.89,North,0,0.0,0.0,73,0.00,,,0.00,WUHU216HW,2013-09-23 08:59:00,
2013-09-23 05:02:00,50.4,42.0,29.89,North,0,0.0,0.0,73,0.00,,,0.00,WUHU216HW,2013-09-23 09:02:00,
2013-09-23 05:03:00,50.4,42.0,29.89,North,0,0.0,0.0,73,0.00,,,0.00,WUHU216HW,2013-09-23 09:03:00,
2013-09-23 05:04:00,50.4,42.0,29.89,North,0,0.0,0.0,73,0.00,,,0.00,WUHU216HW,2013-09-23 09:04:00,
2013-09-23 05:07:00,50.4,42.0,29.90,North,0,0.0,0.0,73,0.00,,,0.00,WUHU216HW,2013-09-23 09:07:00,
2013-09-23 05:08:00,50.4,42.0,29.89,North,0,0.0,0.0,73,0.00,,,0.00,WUHU216HW,2013-09-23 09:08:00,
2013-09-23 05:09:00,50.4,42.0,29.89,North,0,0.0,0.0,73,0.00,,,0.00,WUHU216HW,2013-09-23 09:09:00,
2013-09-23 05:10:00,50.4,42.0,29.89,North,0,0.0,0.0,73,0.00,,,0.00,WUHU216HW,2013-09-23 09:10:00,
2013-09-23 05:12:00,50.4,42.0,29.89,North,0,0.0,0.0,73,0.00,,,0.00,WUHU216HW,2013-09-23 09:12:00,
2013-09-23 05:13:00,50.4,42.0,29.89,North,0,0.0,0.0,73,0.00,,,0.00,WUHU216HW,2013-09-23 09:13:00,
2013-09-23 05:15:00,50.4,42.0,29.89,North,0,0.0,0.0,73,0.00,,,0.00,WUHU216HW,2013-09-23 09:15:00,
2013-09-23 05:17:00,50.4,42.0,29.89,North,0,0.0,0.0,73,0.00,,,0.00,WUHU216HW,2013-09-23 09:17:00,
2013-09-23 05:18:00,50.4,42.0,29.90,North,0,0.0,0.0,73,0.00,,,0.00,WUHU216HW,2013-09-23 09:18:00,
2013-09-23 05:19:00,50.4,42.0,29.89,North,0,0.0,0.0,73,0.00,,,0.00,WUHU216HW,2013-09-23 09:19:00,
2013-09-23 05:20:00,50.2,41.9,29.90,North,0,0.0,0.0,73,0.00,,,0.00,WUHU216HW,2013-09-23 09:20:00,
2013-09-23 05:22:00,50.2,41.9,29.89,North,0,0.0,0.0,73,0.00,,,0.00,WUHU216HW,2013-09-23 09:22:00,
2013-09-23 05:23:00,50.2,41.9,29.90,North,0,0.0,0.0,73,0.00,,,0.00,WUHU216HW,2013-09-23 09:23:00,
2013-09-23 05:24:00,50.2,42.2,29.90,North,0,0.0,0.0,74,0.00,,,0.00,WUHU216HW,2013-09-23 09:24:00,
2013-09-23 05:25:00,50.2,42.2,29.90,North,0,0.0,0.0,74,0.00,,,0.00,WUHU216HW,2013-09-23 09:25:00,
2013-09-23 05:26:00,50.2,41.9,29.90,North,0,0.0,0.0,73,0.00,,,0.00,WUHU216HW,2013-09-23 09:26:00,
2013-09-23 05:27:00,50.2,41.9,29.90,North,0,0.0,0.0,73,0.00,,,0.00,WUHU216HW,2013-09-23 09:27:00,
2013-09-23 05:28:00,50.2,41.9,29.90,North,0,0.0,0.0,73,0.00,,,0.00,WUHU216HW,2013-09-23 09:28:00,
2013-09-23 05:29:00,50.2,41.9,29.89,North,0,0.0,0.0,73,0.00,,,0.00,WUHU216HW,2013-09-23 09:29:00,
2013-09-23 05:31:00,50.2,42.2,29.89,North,0,0.0,0.0,74,0.00,,,0.00,WUHU216HW,2013-09-23 09:31:00,
2013-09-23 05:33:00,50.2,42.2,29.90,North,0,0.0,0.0,74,0.00,,,0.00,WUHU216HW,2013-09-23 09:33:00,
2013-09-23 05:35:00,50.2,42.2,29.90,North,0,0.0,0.0,74,0.00,,,0.00,WUHU216HW,2013-09-23 09:35:00,
2013-09-23 05:36:00,50.2,42.2,29.90,North,0,0.0,0.0,74,0.00,,,0.00,WUHU216HW,2013-09-23 09:36:00,
2013-09-23 05:38:00,50.2,42.2,29.90,North,0,0.0,0.0,74,0.00,,,0.00,WUHU216HW,2013-09-23 09:38:00,
2013-09-23 05:40:00,50.2,42.2,29.90,North,0,0.0,0.0,74,0.00,,,0.00,WUHU216HW,2013-09-23 09:40:00,
2013-09-23 05:41:00,50.2,42.2,29.90,North,0,0.0,0.0,74,0.00,,,0.00,WUHU216HW,2013-09-23 09:41:00,
2013-09-23 05:42:00,50.2,42.2,29.90,North,0,0.0,0.0,74,0.00,,,0.00,WUHU216HW,2013-09-23 09:42:00,
2013-09-23 05:43:00,50.2,42.2,29.90,North,0,0.0,0.0,74,0.00,,,0.00,WUHU216HW,2013-09-23 09:43:00,
2013-09-23 05:45:00,50.2,42.2,29.90,North,0,0.0,0.0,74,0.00,,,0.00,WUHU216HW,2013-09-23 09:45:00,
2013-09-23 05:46:00,50.2,42.2,29.90,North,0,0.0,0.0,74,0.00,,,0.00,WUHU216HW,2013-09-23 09:46:00,
2013-09-23 05:47:00,50.2,42.2,29.90,North,0,0.0,0.0,74,0.00,,,0.00,WUHU216HW,2013-09-23 09:47:00,
2013-09-23 05:48:00,50.2,42.2,29.90,North,0,0.0,0.0,74,0.00,,,0.00,WUHU216HW,2013-09-23 09:48:00,
2013-09-23 05:50:00,50.4,42.4,29.90,North,0,0.0,0.0,74,0.00,,,0.00,WUHU216HW,2013-09-23 09:50:00,
2013-09-23 05:51:00,50.4,42.4,29.90,North,0,0.0,0.0,74,0.00,,,0.00,WUHU216HW,2013-09-23 09:51:00,
2013-09-23 05:53:00,50.4,42.4,29.90,North,0,0.0,0.0,74,0.00,,,0.00,WUHU216HW,2013-09-23 09:53:00,
2013-09-23 05:55:00,50.2,42.2,29.90,North,0,0.0,0.0,74,0.00,,,0.00,WUHU216HW,2013-09-23 09:55:00,
2013-09-23 05:57:00,50.4,42.4,29.91,North,0,0.0,0.0,74,0.00,,,0.00,WUHU216HW,2013-09-23 09:57:00,
2013-09-23 05:58:00,50.4,42.4,29.90,North,0,0.0,0.0,74,0.00,,,0.00,WUHU216HW,2013-09-23 09:58:00,
2013-09-23 05:59:00,50.4,42.0,29.91,North,0,0.0,0.0,73,0.00,,,0.00,WUHU216HW,2013-09-23 09:59:00,
2013-09-23 06:00:00,50.4,42.0,29.90,North,0,0.0,0.0,73,0.00,,,0.00,WUHU216HW,2013-09-23 10:00:00,
2013-09-23 06:02:00,50.4,42.0,29.90,North,0,0.0,0.0,73,0.00,,,0.00,WUHU216HW,2013-09-23 10:02:00,
2013-09-23 06:03:00,50.4,42.0,29.91,North,0,0.0,0.0,73,0.00,,,0.00,WUHU216HW,2013-09-23 10:03:00,
2013-09-23 06:04:00,50.4,42.0,29.91,North,0,0.0,0.0,73,0.00,,,0.00,WUHU216HW,2013-09-23 10:04:00,
2013-09-23 06:05:00,50.4,42.0,29.91,North,0,0.0,0.0,73,0.00,,,0.00,WUHU216HW,2013-09-23 10:05:00,
2013-09-23 06:07:00,50.4,42.0,29.91,North,0,0.0,0.0,73,0.00,,,0.00,WUHU216HW,2013-09-23 10:07:00,
2013-09-23 06:08:00,50.4,42.0,29.91,North,0,0.0,0.0,73,0.00,,,0.00,WUHU216HW,2013-09-23 10:08:00,
2013-09-23 06:09:00,50.4,42.0,29.91,North,0,0.0,0.0,73,0.00,,,0.00,WUHU216HW,2013-09-23 10:09:00,
2013-09-23 06:11:00,50.4,42.0,29.91,North,0,0.0,0.0,73,0.00,,,0.00,WUHU216HW,2013-09-23 10:11:00,
2013-09-23 06:12:00,50.4,42.0,29.91,North,0,0.0,0.0,73,0.00,,,0.00,WUHU216HW,2013-09-23 10:12:00,
2013-09-23 06:13:00,50.4,42.0,29.91,North,0,0.0,0.0,73,0.00,,,0.00,WUHU216HW,2013-09-23 10:13:00,
2013-09-23 06:14:00,50.4,42.0,29.91,North,0,0.0,0.0,73,0.00,,,0.00,WUHU216HW,2013-09-23 10:14:00,
2013-09-23 06:16:00,50.4,42.0,29.91,North,0,0.0,0.0,73,0.00,,,0.00,WUHU216HW,2013-09-23 10:16:00,
2013-09-23 06:18:00,50.4,42.0,29.91,North,0,0.0,0.0,73,0.00,,,0.00,WUHU216HW,2013-09-23 10:18:00,
2013-09-23 06:19:00,50.4,42.0,29.91,North,0,0.0,0.0,73,0.00,,,0.00,WUHU216HW,2013-09-23 10:19:00,
2013-09-23 06:20:00,50.4,42.0,29.92,North,0,0.0,0.0,73,0.00,,,0.00,WUHU216HW,2013-09-23 10:20:00,
2013-09-23 06:21:00,50.4,42.0,29.92,North,0,0.0,0.0,73,0.00,,,0.00,WUHU216HW,2013-09-23 10:21:00,
2013-09-23 06:23:00,50.4,42.0,29.92,North,0,0.0,0.0,73,0.00,,,0.00,WUHU216HW,2013-09-23 10:23:00,
2013-09-23 06:24:00,50.4,42.0,29.92,North,0,0.0,0.0,73,0.00,,,0.00,WUHU216HW,2013-09-23 10:24:00,
2013-09-23 06:25:00,50.4,42.0,29.92,North,0,0.0,0.0,73,0.00,,,0.00,WUHU216HW,2013-09-23 10:25:00,
2013-09-23 06:27:00,50.4,42.0,29.92,North,0,0.0,0.0,73,0.00,,,0.00,WUHU216HW,2013-09-23 10:27:00,
2013-09-23 06:29:00,50.4,42.0,29.92,North,0,0.0,0.0,73,0.00,,,0.00,WUHU216HW,2013-09-23 10:29:00,
2013-09-23 06:30:00,50.4,42.0,29.92,North,0,0.0,0.0,73,0.00,,,0.00,WUHU216HW,2013-09-23 10:30:00,
2013-09-23 06:32:00,50.4,42.0,29.92,North,0,0.0,0.0,73,0.00,,,0.00,WUHU216HW,2013-09-23 10:32:00,
2013-09-23 06:34:00,50.4,42.0,29.92,North,0,0.0,0.0,73,0.00,,,0.00,WUHU216HW,2013-09-23 10:34:00,
2013-09-23 06:35:00,50.4,42.0,29.92,North,0,0.0,0.0,73,0.00,,,0.00,WUHU216HW,2013-09-23 10:35:00,
2013-09-23 06:37:00,50.4,42.0,29.92,North,0,0.0,0.0,73,0.00,,,0.00,WUHU216HW,2013-09-23 10:37:00,
2013-09-23 06:39:00,50.4,42.0,29.92,North,0,0.0,0.0,73,0.00,,,0.00,WUHU216HW,2013-09-23 10:39:00,
2013-09-23 06:40:00,50.4,42.0,29.92,North,0,0.0,0.0,73,0.00,,,0.00,WUHU216HW,2013-09-23 10:40:00,
2013-09-23 06:42:00,50.4,42.0,29.92,North,0,0.0,0.0,73,0.00,,,0.00,WUHU216HW,2013-09-23 10:42:00,
2013-09-23 06:45:00,50.4,42.0,29.92,North,0,0.0,0.0,73,0.00,,,0.00,WUHU216HW,2013-09-23 10:45:00,
2013-09-23 06:48:00,50.4,42.0,29.92,North,0,0.0,0.0,73,0.00,,,0.00,WUHU216HW,2013-09-23 10:48:00,
2013-09-23 06:50:00,50.4,42.0,29.92,North,0,0.0,0.0,73,0.00,,,0.00,WUHU216HW,2013-09-23 10:50:00,
2013-09-23 06:53:00,50.4,42.0,29.92,North,0,0.0,0.0,73,0.00,,,0.00,WUHU216HW,2013-09-23 10:53:00,
2013-09-23 06:55:00,50.4,42.0,29.92,North,0,0.0,0.0,73,0.00,,,0.00,WUHU216HW,2013-09-23 10:55:00,
2013-09-23 06:56:00,50.4,42.0,29.93,North,0,0.0,0.0,73,0.00,,,0.00,WUHU216HW,2013-09-23 10:56:00,
2013-09-23 06:59:00,50.4,42.0,29.93,North,0,0.0,0.0,73,0.00,,,0.00,WUHU216HW,2013-09-23 10:59:00,
2013-09-23 07:00:00,50.4,42.0,29.93,North,0,0.0,0.0,73,0.00,,,0.00,WUHU216HW,2013-09-23 11:00:00,
2013-09-23 07:01:00,50.4,42.0,29.93,North,0,0.0,0.0,73,0.00,,,0.00,WUHU216HW,2013-09-23 11:01:00,
2013-09-23 07:04:00,50.6,42.2,29.93,North,0,0.0,0.0,73,0.00,,,0.00,WUHU216HW,2013-09-23 11:04:00,
2013-09-23 07:06:00,50.4,42.0,29.93,North,0,0.0,0.0,73,0.00,,,0.00,WUHU216HW,2013-09-23 11:06:00,
2013-09-23 07:09:00,50.6,42.2,29.93,North,0,0.0,0.0,73,0.00,,,0.00,WUHU216HW,2013-09-23 11:09:00,
2013-09-23 07:11:00,50.6,42.2,29.93,North,0,0.0,0.0,73,0.00,,,0.00,WUHU216HW,2013-09-23 11:11:00,
2013-09-23 07:14:00,50.8,42.4,29.93,North,0,0.0,0.0,73,0.00,,,0.00,WUHU216HW,2013-09-23 11:14:00,
2013-09-23 07:16:00,50.8,42.4,29.93,North,0,0.0,0.0,73,0.00,,,0.00,WUHU216HW,2013-09-23 11:16:00,
2013-09-23 07:17:00,50.8,42.4,29.93,North,0,0.0,0.0,73,0.00,,,0.00,WUHU216HW,2013-09-23 11:17:00,
2013-09-23 07:20:00,50.8,42.4,29.93,North,0,0.0,0.0,73,0.00,,,0.00,WUHU216HW,2013-09-23 11:20:00,
2013-09-23 07:21:00,50.9,42.6,29.93,North,0,0.0,0.0,73,0.00,,,0.00,WUHU216HW,2013-09-23 11:21:00,
2013-09-23 07:22:00,50.9,42.6,29.93,North,0,0.0,0.0,73,0.00,,,0.00,WUHU216HW,2013-09-23 11:22:00,
2013-09-23 07:23:00,50.9,42.6,29.93,North,0,0.0,0.0,73,0.00,,,0.00,WUHU216HW,2013-09-23 11:23:00,
2013-09-23 07:25:00,51.1,42.5,29.94,North,0,0.0,0.0,72,0.00,,,0.00,WUHU216HW,2013-09-23 11:25:00,
2013-09-23 07:26:00,51.3,42.7,29.94,North,0,0.0,0.0,72,0.00,,,0.00,WUHU216HW,2013-09-23 11:26:00,
2013-09-23 07:27:00,51.3,42.7,29.94,North,0,0.0,0.0,72,0.00,,,0.00,WUHU216HW,2013-09-23 11:27:00,
2013-09-23 07:28:00,51.3,42.7,29.94,North,0,0.0,0.0,72,0.00,,,0.00,WUHU216HW,2013-09-23 11:28:00,
2013-09-23 07:30:00,51.5,42.9,29.94,North,0,0.0,0.0,72,0.00,,,0.00,WUHU216HW,2013-09-23 11:30:00,
2013-09-23 07:31:00,51.5,42.9,29.94,North,0,0.0,0.0,72,0.00,,,0.00,WUHU216HW,2013-09-23 11:31:00,
2013-09-23 07:32:00,51.5,42.9,29.94,North,0,0.0,0.0,72,0.00,,,0.00,WUHU216HW,2013-09-23 11:32:00,
2013-09-23 07:33:00,51.7,43.0,29.94,North,0,0.0,0.0,72,0.00,,,0.00,WUHU216HW,2013-09-23 11:33:00,
2013-09-23 07:35:00,51.7,43.0,29.94,North,0,0.0,0.0,72,0.00,,,0.00,WUHU216HW,2013-09-23 11:35:00,
2013-09-23 07:36:00,51.7,43.0,29.94,North,0,0.0,0.0,72,0.00,,,0.00,WUHU216HW,2013-09-23 11:36:00,
2013-09-23 07:37:00,51.7,43.0,29.94,North,0,0.0,0.0,72,0.00,,,0.00,WUHU216HW,2013-09-23 11:37:00,
2013-09-23 07:38:00,51.7,43.0,29.94,North,0,0.0,0.0,72,0.00,,,0.00,WUHU216HW,2013-09-23 11:38:00,
2013-09-23 07:40:00,51.7,43.0,29.94,North,0,0.0,0.0,72,0.00,,,0.00,WUHU216HW,2013-09-23 11:40:00,
2013-09-23 07:41:00,51.7,43.0,29.94,North,0,0.0,0.0,72,0.00,,,0.00,WUHU216HW,2013-09-23 11:41:00,
2013-09-23 07:42:00,51.7,43.0,29.94,North,0,0.0,0.0,72,0.00,,,0.00,WUHU216HW,2013-09-23 11:42:00,
2013-09-23 07:43:00,51.7,43.0,29.94,North,0,0.0,0.0,72,0.00,,,0.00,WUHU216HW,2013-09-23 11:43:00,
2013-09-23 07:45:00,51.8,43.2,29.94,North,0,0.0,0.0,72,0.00,,,0.00,WUHU216HW,2013-09-23 11:45:00,
2013-09-23 07:46:00,52.0,43.3,29.94,North,0,0.0,0.0,72,0.00,,,0.00,WUHU216HW,2013-09-23 11:46:00,
2013-09-23 07:47:00,52.0,43.3,29.94,North,0,0.0,0.0,72,0.00,,,0.00,WUHU216HW,2013-09-23 11:47:00,
2013-09-23 07:48:00,52.2,43.5,29.94,North,0,0.0,0.0,72,0.00,,,0.00,WUHU216HW,2013-09-23 11:48:00,
2013-09-23 07:49:00,52.2,43.1,29.94,North,0,0.0,0.0,71,0.00,,,0.00,WUHU216HW,2013-09-23 11:49:00,
2013-09-23 07:50:00,52.2,43.1,29.94,North,0,0.0,0.0,71,0.00,,,0.00,WUHU216HW,2013-09-23 11:50:00,
2013-09-23 07:51:00,52.4,43.3,29.94,North,0,0.0,0.0,71,0.00,,,0.00,WUHU216HW,2013-09-23 11:51:00,
2013-09-23 07:53:00,52.4,43.7,29.94,North,0,0.0,0.0,72,0.00,,,0.00,WUHU216HW,2013-09-23 11:53:00,
2013-09-23 07:54:00,52.4,43.7,29.94,North,0,0.0,0.0,72,0.00,,,0.00,WUHU216HW,2013-09-23 11:54:00,
2013-09-23 07:55:00,52.6,43.8,29.94,North,0,0.0,0.0,72,0.00,,,0.00,WUHU216HW,2013-09-23 11:55:00,
2013-09-23 07:56:00,52.6,43.8,29.94,North,0,0.0,0.0,72,0.00,,,0.00,WUHU216HW,2013-09-23 11:56:00,
2013-09-23 07:58:00,52.7,43.7,29.94,North,0,0.0,0.0,71,0.00,,,0.00,WUHU216HW,2013-09-23 11:58:00,
2013-09-23 07:59:00,52.7,43.7,29.94,North,0,0.0,0.0,71,0.00,,,0.00,WUHU216HW,2013-09-23 11:59:00,
2013-09-23 08:01:00,52.7,43.7,29.94,North,0,0.0,0.0,71,0.00,,,0.00,WUHU216HW,2013-09-23 12:01:00,
2013-09-23 08:02:00,52.7,43.7,29.94,North,0,0.0,0.0,71,0.00,,,0.00,WUHU216HW,2013-09-23 12:02:00,
2013-09-23 08:03:00,52.7,43.7,29.94,North,0,0.0,0.0,71,0.00,,,0.00,WUHU216HW,2013-09-23 12:03:00,
2013-09-23 08:04:00,52.7,43.7,29.94,North,0,0.0,0.0,71,0.00,,,0.00,WUHU216HW,2013-09-23 12:04:00,
2013-09-23 08:06:00,52.7,43.7,29.94,North,0,0.0,0.0,71,0.00,,,0.00,WUHU216HW,2013-09-23 12:06:00,
2013-09-23 08:07:00,52.7,43.7,29.94,North,0,0.0,0.0,71,0.00,,,0.00,WUHU216HW,2013-09-23 12:07:00,
2013-09-23 08:08:00,52.9,43.8,29.94,North,0,0.0,0.0,71,0.00,,,0.00,WUHU216HW,2013-09-23 12:08:00,
2013-09-23 08:09:00,52.7,43.7,29.94,North,0,0.0,0.0,71,0.00,,,0.00,WUHU216HW,2013-09-23 12:09:00,
2013-09-23 08:10:00,52.7,43.7,29.94,North,0,0.0,0.0,71,0.00,,,0.00,WUHU216HW,2013-09-23 12:10:00,
2013-09-23 08:11:00,52.9,43.8,29.94,North,0,0.0,0.0,71,0.00,,,0.00,WUHU216HW,2013-09-23 12:11:00,
2013-09-23 08:12:00,52.9,43.5,29.94,North,0,0.0,0.0,70,0.00,,,0.00,WUHU216HW,2013-09-23 12:12:00,
2013-09-23 08:14:00,52.9,43.5,29.94,North,0,0.0,0.0,70,0.00,,,0.00,WUHU216HW,2013-09-23 12:14:00,
2013-09-23 08:15:00,52.9,43.5,29.94,North,0,0.0,0.0,70,0.00,,,0.00,WUHU216HW,2013-09-23 12:15:00,
2013-09-23 08:16:00,52.9,43.5,29.94,North,0,0.0,0.0,70,0.00,,,0.00,WUHU216HW,2013-09-23 12:16:00,
2013-09-23 08:17:00,52.9,43.5,29.94,North,0,0.0,0.0,70,0.00,,,0.00,WUHU216HW,2013-09-23 12:17:00,
2013-09-23 08:19:00,52.9,43.5,29.94,North,0,0.0,0.0,70,0.00,,,0.00,WUHU216HW,2013-09-23 12:19:00,
2013-09-23 08:20:00,52.9,43.5,29.95,North,0,0.0,0.0,70,0.00,,,0.00,WUHU216HW,2013-09-23 12:20:00,
2013-09-23 08:21:00,52.9,43.0,29.95,North,0,0.0,0.0,69,0.00,,,0.00,WUHU216HW,2013-09-23 12:21:00,
2013-09-23 08:22:00,53.1,43.7,29.95,North,0,0.0,0.0,70,0.00,,,0.00,WUHU216HW,2013-09-23 12:22:00,
2013-09-23 08:24:00,53.1,43.7,29.95,North,0,0.0,0.0,70,0.00,,,0.00,WUHU216HW,2013-09-23 12:24:00,
2013-09-23 08:25:00,53.1,43.7,29.95,North,0,0.0,0.0,70,0.00,,,0.00,WUHU216HW,2013-09-23 12:25:00,
2013-09-23 08:26:00,53.1,43.7,29.94,North,0,0.0,0.0,70,0.00,,,0.00,WUHU216HW,2013-09-23 12:26:00,
2013-09-23 08:27:00,53.1,43.7,29.95,North,0,0.0,0.0,70,0.00,,,0.00,WUHU216HW,2013-09-23 12:27:00,
2013-09-23 08:29:00,53.3,43.4,29.94,North,0,0.0,0.0,69,0.00,,,0.00,WUHU216HW,2013-09-23 12:29:00,
2013-09-23 08:30:00,53.3,43.4,29.94,North,0,0.0,0.0,69,0.00,,,0.00,WUHU216HW,2013-09-23 12:30:00,
2013-09-23 08:31:00,53.3,43.4,29.95,North,0,0.0,0.0,69,0.00,,,0.00,WUHU216HW,2013-09-23 12:31:00,
2013-09-23 08:32:00,53.3,43.4,29.95,North,0,0.0,0.0,69,0.00,,,0.00,WUHU216HW,2013-09-23 12:32:00,
2013-09-23 08:34:00,53.3,43.4,29.95,North,0,0.0,0.0,69,0.00,,,0.00,WUHU216HW,2013-09-23 12:34:00,
2013-09-23 08:35:00,53.3,43.4,29.95,North,0,0.0,0.0,69,0.00,,,0.00,WUHU216HW,2013-09-23 12:35:00,
2013-09-23 08:36:00,53.3,43.0,29.95,North,0,0.0,0.0,68,0.00,,,0.00,WUHU216HW,2013-09-23 12:36:00,
2013-09-23 08:37:00,53.3,43.0,29.95,North,0,0.0,0.0,68,0.00,,,0.00,WUHU216HW,2013-09-23 12:37:00,
2013-09-23 08:39:00,53.3,43.4,29.95,North,0,0.0,0.0,69,0.00,,,0.00,WUHU216HW,2013-09-23 12:39:00,
2013-09-23 08:41:00,53.3,43.4,29.95,North,0,0.0,0.0,69,0.00,,,0.00,WUHU216HW,2013-09-23 12:41:00,
2013-09-23 08:42:00,53.3,43.4,29.95,North,0,0.0,0.0,69,0.00,,,0.00,WUHU216HW,2013-09-23 12:42:00,
2013-09-23 08:44:00,53.5,43.6,29.95,North,0,0.0,0.0,69,0.00,,,0.00,WUHU216HW,2013-09-23 12:44:00,
2013-09-23 08:46:00,53.5,43.1,29.95,North,0,0.0,0.0,68,0.00,,,0.00,WUHU216HW,2013-09-23 12:46:00,
2013-09-23 08:47:00,53.5,43.1,29.95,North,0,0.0,0.0,68,0.00,,,0.00,WUHU216HW,2013-09-23 12:47:00,
2013-09-23 08:49:00,53.5,43.6,29.95,North,0,0.0,0.0,69,0.00,,,0.00,WUHU216HW,2013-09-23 12:49:00,
2013-09-23 08:52:00,53.5,43.1,29.95,North,0,0.0,0.0,68,0.00,,,0.00,WUHU216HW,2013-09-23 12:52:00,
2013-09-23 08:53:00,53.5,43.1,29.95,North,0,0.0,0.0,68,0.00,,,0.00,WUHU216HW,2013-09-23 12:53:00,
2013-09-23 08:55:00,53.6,43.3,29.95,North,0,0.0,0.0,68,0.00,,,0.00,WUHU216HW,2013-09-23 12:55:00,
2013-09-23 08:57:00,53.6,43.3,29.94,North,0,0.0,0.0,68,0.00,,,0.00,WUHU216HW,2013-09-23 12:57:00,
2013-09-23 08:58:00,53.6,43.3,29.95,North,0,0.0,0.0,68,0.00,,,0.00,WUHU216HW,2013-09-23 12:58:00,
2013-09-23 09:00:00,53.6,43.3,29.95,North,0,0.0,0.0,68,0.00,,,0.00,WUHU216HW,2013-09-23 13:00:00,
2013-09-23 09:02:00,53.6,43.3,29.95,North,0,0.0,0.0,68,0.00,,,0.00,WUHU216HW,2013-09-23 13:02:00,
2013-09-23 09:03:00,53.6,43.8,29.95,North,0,0.0,0.0,69,0.00,,,0.00,WUHU216HW,2013-09-23 13:03:00,
2013-09-23 09:05:00,53.8,43.9,29.95,North,0,0.0,0.0,69,0.00,,,0.00,WUHU216HW,2013-09-23 13:05:00,
2013-09-23 09:07:00,54.0,44.1,29.95,North,0,0.0,0.0,69,0.00,,,0.00,WUHU216HW,2013-09-23 13:07:00,
2013-09-23 09:08:00,54.0,44.1,29.95,North,0,0.0,0.0,69,0.00,,,0.00,WUHU216HW,2013-09-23 13:08:00,
2013-09-23 09:10:00,54.2,43.8,29.95,North,0,0.0,0.0,68,0.00,,,0.00,WUHU216HW,2013-09-23 13:10:00,
2013-09-23 09:13:00,54.4,44.0,29.95,North,0,0.0,0.0,68,0.00,,,0.00,WUHU216HW,2013-09-23 13:13:00,
2013-09-23 09:15:00,54.4,44.0,29.95,North,0,0.0,0.0,68,0.00,,,0.00,WUHU216HW,2013-09-23 13:15:00,
2013-09-23 09:18:00,54.4,43.7,29.95,North,0,0.0,0.0,67,0.00,,,0.00,WUHU216HW,2013-09-23 13:18:00,
2013-09-23 09:19:00,54.4,44.0,29.95,North,0,0.0,0.0,68,0.00,,,0.00,WUHU216HW,2013-09-23 13:19:00,
2013-09-23 09:21:00,54.5,43.8,29.95,North,0,0.0,0.0,67,0.00,,,0.00,WUHU216HW,2013-09-23 13:21:00,
2013-09-23 09:23:00,54.5,44.2,29.95,North,0,0.0,0.0,68,0.00,,,0.00,WUHU216HW,2013-09-23 13:23:00,
2013-09-23 09:24:00,54.5,43.8,29.95,North,0,0.0,0.0,67,0.00,,,0.00,WUHU216HW,2013-09-23 13:24:00,
2013-09-23 09:26:00,54.7,43.9,29.95,North,0,0.0,0.0,67,0.00,,,0.00,WUHU216HW,2013-09-23 13:26:00,
2013-09-23 09:28:00,54.7,43.9,29.95,North,0,0.0,0.0,67,0.00,,,0.00,WUHU216HW,2013-09-23 13:28:00,
2013-09-23 09:29:00,54.7,43.9,29.95,North,0,0.0,0.0,67,0.00,,,0.00,WUHU216HW,2013-09-23 13:29:00,
2013-09-23 09:31:00,54.7,43.9,29.95,North,0,0.0,0.0,67,0.00,,,0.00,WUHU216HW,2013-09-23 13:31:00,
2013-09-23 09:33:00,54.7,43.9,29.96,North,0,0.0,0.0,67,0.00,,,0.00,WUHU216HW,2013-09-23 13:33:00,
2013-09-23 09:34:00,54.7,43.9,29.96,North,0,0.0,0.0,67,0.00,,,0.00,WUHU216HW,2013-09-23 13:34:00,
2013-09-23 09:36:00,54.9,43.8,29.95,North,0,0.0,0.0,66,0.00,,,0.00,WUHU216HW,2013-09-23 13:36:00,
2013-09-23 09:38:00,55.1,44.3,29.95,North,0,0.0,0.0,67,0.00,,,0.00,WUHU216HW,2013-09-23 13:38:00,
2013-09-23 09:39:00,55.1,44.3,29.95,North,0,0.0,0.0,67,0.00,,,0.00,WUHU216HW,2013-09-23 13:39:00,
2013-09-23 09:41:00,55.1,44.3,29.95,North,0,0.0,0.0,67,0.00,,,0.00,WUHU216HW,2013-09-23 13:41:00,
2013-09-23 09:43:00,55.3,44.5,29.95,North,0,0.0,0.0,67,0.00,,,0.00,WUHU216HW,2013-09-23 13:43:00,
2013-09-23 09:44:00,55.3,44.5,29.95,North,0,0.0,0.0,67,0.00,,,0.00,WUHU216HW,2013-09-23 13:44:00,
2013-09-23 09:46:00,55.6,44.8,29.95,North,0,0.0,0.0,67,0.00,,,0.00,WUHU216HW,2013-09-23 13:46:00,
2013-09-23 09:47:00,55.6,44.8,29.95,North,0,0.0,0.0,67,0.00,,,0.00,WUHU216HW,2013-09-23 13:47:00,
2013-09-23 09:48:00,55.8,45.0,29.95,North,0,0.0,0.0,67,0.00,,,0.00,WUHU216HW,2013-09-23 13:48:00,
2013-09-23 09:49:00,55.8,45.0,29.95,North,0,0.0,0.0,67,0.00,,,0.00,WUHU216HW,2013-09-23 13:49:00,
2013-09-23 09:51:00,55.8,45.0,29.95,North,0,0.0,0.0,67,0.00,,,0.00,WUHU216HW,2013-09-23 13:51:00,
2013-09-23 09:52:00,56.0,45.2,29.95,North,0,0.0,0.0,67,0.00,,,0.00,WUHU216HW,2013-09-23 13:52:00,
2013-09-23 09:54:00,56.2,45.4,29.95,North,0,0.0,0.0,67,0.00,,,0.00,WUHU216HW,2013-09-23 13:54:00,
2013-09-23 09:55:00,56.2,45.4,29.95,North,0,0.0,0.0,67,0.00,,,0.00,WUHU216HW,2013-09-23 13:55:00,
2013-09-23 09:57:00,56.3,45.5,29.95,North,0,0.0,0.0,67,0.00,,,0.00,WUHU216HW,2013-09-23 13:57:00,
2013-09-23 09:59:00,56.5,45.6,29.95,North,0,0.0,0.0,67,0.00,,,0.00,WUHU216HW,2013-09-23 13:59:00,
2013-09-23 10:00:00,56.5,45.6,29.95,North,0,0.0,0.0,67,0.00,,,0.00,WUHU216HW,2013-09-23 14:00:00,
2013-09-23 10:02:00,56.7,45.5,29.95,North,0,0.0,0.0,66,0.00,,,0.00,WUHU216HW,2013-09-23 14:02:00,
2013-09-23 10:04:00,56.7,45.5,29.95,North,0,0.0,0.0,66,0.00,,,0.00,WUHU216HW,2013-09-23 14:04:00,
2013-09-23 10:05:00,56.7,45.5,29.95,North,0,0.0,0.0,66,0.00,,,0.00,WUHU216HW,2013-09-23 14:05:00,
2013-09-23 10:07:00,56.7,45.5,29.95,North,0,0.0,0.0,66,0.00,,,0.00,WUHU216HW,2013-09-23 14:07:00,
2013-09-23 10:08:00,56.7,45.5,29.95,North,0,0.0,0.0,66,0.00,,,0.00,WUHU216HW,2013-09-23 14:08:00,
2013-09-23 10:09:00,56.7,45.5,29.95,North,0,0.0,0.0,66,0.00,,,0.00,WUHU216HW,2013-09-23 14:09:00,
2013-09-23 10:10:00,56.7,45.0,29.95,North,0,0.0,0.0,65,0.00,,,0.00,WUHU216HW,2013-09-23 14:10:00,
2013-09-23 10:12:00,56.9,45.6,29.95,North,0,0.0,0.0,66,0.00,,,0.00,WUHU216HW,2013-09-23 14:12:00,
2013-09-23 10:13:00,57.1,45.4,29.95,North,0,0.0,0.0,65,0.00,,,0.00,WUHU216HW,2013-09-23 14:13:00,
2013-09-23 10:14:00,57.1,45.8,29.95,North,0,0.0,0.0,66,0.00,,,0.00,WUHU216HW,2013-09-23 14:14:00,
2013-09-23 10:15:00,57.2,45.5,29.95,North,0,0.0,0.0,65,0.00,,,0.00,WUHU216HW,2013-09-23 14:15:00,
2013-09-23 10:16:00,57.2,45.5,29.95,North,0,0.0,0.0,65,0.00,,,0.00,WUHU216HW,2013-09-23 14:16:00,
2013-09-23 10:18:00,57.2,45.2,29.95,North,0,0.0,0.0,64,0.00,,,0.00,WUHU216HW,2013-09-23 14:18:00,
2013-09-23 10:19:00,57.2,45.2,29.95,North,0,0.0,0.0,64,0.00,,,0.00,WUHU216HW,2013-09-23 14:19:00,
2013-09-23 10:20:00,57.2,45.2,29.95,North,0,0.0,0.0,64,0.00,,,0.00,WUHU216HW,2013-09-23 14:20:00,
2013-09-23 10:21:00,57.2,45.2,29.95,North,0,0.0,0.0,64,0.00,,,0.00,WUHU216HW,2013-09-23 14:21:00,
2013-09-23 10:23:00,57.2,44.7,29.95,North,0,0.0,0.0,63,0.00,,,0.00,WUHU216HW,2013-09-23 14:23:00,
2013-09-23 10:24:00,57.2,44.7,29.96,North,0,0.0,0.0,63,0.00,,,0.00,WUHU216HW,2013-09-23 14:24:00,
2013-09-23 10:25:00,57.2,44.7,29.96,North,0,0.0,0.0,63,0.00,,,0.00,WUHU216HW,2013-09-23 14:25:00,
2013-09-23 10:26:00,57.2,44.7,29.96,North,0,0.0,0.0,63,0.00,,,0.00,WUHU216HW,2013-09-23 14:26:00,
2013-09-23 10:28:00,57.2,44.4,29.96,North,0,0.0,0.0,62,0.00,,,0.00,WUHU216HW,2013-09-23 14:28:00,
2013-09-23 10:29:00,57.4,44.6,29.95,North,0,0.0,0.0,62,0.00,,,0.00,WUHU216HW,2013-09-23 14:29:00,
2013-09-23 10:30:00,57.4,44.6,29.95,North,0,0.0,0.0,62,0.00,,,0.00,WUHU216HW,2013-09-23 14:30:00,
2013-09-23 10:31:00,57.6,44.6,29.95,North,0,0.0,0.0,62,0.00,,,0.00,WUHU216HW,2013-09-23 14:31:00,
2013-09-23 10:33:00,57.6,44.6,29.95,North,0,0.0,0.0,62,0.00,,,0.00,WUHU216HW,2013-09-23 14:33:00,
2013-09-23 10:34:00,57.6,44.6,29.96,North,0,0.0,0.0,62,0.00,,,0.00,WUHU216HW,2013-09-23 14:34:00,
2013-09-23 10:36:00,57.8,44.8,29.95,North,0,0.0,0.0,62,0.00,,,0.00,WUHU216HW,2013-09-23 14:36:00,
2013-09-23 10:38:00,58.0,44.7,29.95,North,0,0.0,0.0,61,0.00,,,0.00,WUHU216HW,2013-09-23 14:38:00,
2013-09-23 10:39:00,58.0,44.7,29.95,North,0,0.0,0.0,61,0.00,,,0.00,WUHU216HW,2013-09-23 14:39:00,
2013-09-23 10:40:00,58.0,44.7,29.95,North,0,0.0,0.0,61,0.00,,,0.00,WUHU216HW,2013-09-23 14:40:00,
2013-09-23 10:41:00,58.1,44.4,29.96,North,0,0.0,0.0,60,0.00,,,0.00,WUHU216HW,2013-09-23 14:41:00,
2013-09-23 10:42:00,58.1,44.4,29.96,North,0,0.0,0.0,60,0.00,,,0.00,WUHU216HW,2013-09-23 14:42:00,
2013-09-23 10:43:00,58.3,44.9,29.96,North,0,0.0,0.0,61,0.00,,,0.00,WUHU216HW,2013-09-23 14:43:00,
2013-09-23 10:45:00,58.5,44.7,29.96,North,0,0.0,0.0,60,0.00,,,0.00,WUHU216HW,2013-09-23 14:45:00,
2013-09-23 10:46:00,58.7,44.8,29.96,North,0,0.0,0.0,60,0.00,,,0.00,WUHU216HW,2013-09-23 14:46:00,
2013-09-23 10:47:00,58.9,45.0,29.96,North,0,0.0,0.0,60,0.00,,,0.00,WUHU216HW,2013-09-23 14:47:00,
2013-09-23 10:49:00,59.0,45.2,29.96,North,0,0.0,0.0,60,0.00,,,0.00,WUHU216HW,2013-09-23 14:49:00,
2013-09-23 10:50:00,59.0,45.2,29.96,North,0,0.0,0.0,60,0.00,,,0.00,WUHU216HW,2013-09-23 14:50:00,
2013-09-23 10:51:00,59.0,44.7,29.96,North,0,0.0,0.0,59,0.00,,,0.00,WUHU216HW,2013-09-23 14:51:00,
2013-09-23 10:52:00,59.0,44.7,29.96,North,0,0.0,0.0,59,0.00,,,0.00,WUHU216HW,2013-09-23 14:52:00,
2013-09-23 10:54:00,59.4,45.5,29.96,North,0,0.0,0.0,60,0.00,,,0.00,WUHU216HW,2013-09-23 14:54:00,
2013-09-23 10:55:00,59.6,45.3,29.96,North,0,0.0,0.0,59,0.00,,,0.00,WUHU216HW,2013-09-23 14:55:00,
2013-09-23 10:56:00,59.8,45.5,29.96,North,0,0.0,0.0,59,0.00,,,0.00,WUHU216HW,2013-09-23 14:56:00,
2013-09-23 10:57:00,59.8,45.9,29.96,North,0,0.0,0.0,60,0.00,,,0.00,WUHU216HW,2013-09-23 14:57:00,
2013-09-23 10:58:00,59.9,45.6,29.96,North,0,0.0,0.0,59,0.00,,,0.00,WUHU216HW,2013-09-23 14:58:00,
2013-09-23 10:59:00,59.9,45.1,29.96,North,0,0.0,0.0,58,0.00,,,0.00,WUHU216HW,2013-09-23 14:59:00,
2013-09-23 11:00:00,59.8,44.9,29.96,North,0,0.0,0.0,58,0.00,,,0.00,WUHU216HW,2013-09-23 15:00:00,
2013-09-23 11:01:00,59.9,45.1,29.96,North,0,0.0,0.0,58,0.00,,,0.00,WUHU216HW,2013-09-23 15:01:00,
2013-09-23 11:02:00,59.9,45.1,29.96,North,0,0.0,0.0,58,0.00,,,0.00,WUHU216HW,2013-09-23 15:02:00,
2013-09-23 11:03:00,59.9,44.2,29.96,North,0,0.0,0.0,56,0.00,,,0.00,WUHU216HW,2013-09-23 15:03:00,
2013-09-23 11:04:00,59.8,44.0,29.96,North,0,0.0,0.0,56,0.00,,,0.00,WUHU216HW,2013-09-23 15:04:00,
2013-09-23 11:05:00,59.6,43.8,29.96,North,0,0.0,0.0,56,0.00,,,0.00,WUHU216HW,2013-09-23 15:05:00,
2013-09-23 11:06:00,59.8,44.0,29.96,North,0,0.0,0.0,56,0.00,,,0.00,WUHU216HW,2013-09-23 15:06:00,
2013-09-23 11:07:00,59.8,44.0,29.96,North,0,0.0,0.0,56,0.00,,,0.00,WUHU216HW,2013-09-23 15:07:00,
2013-09-23 11:08:00,59.9,44.2,29.96,North,0,0.0,0.0,56,0.00,,,0.00,WUHU216HW,2013-09-23 15:08:00,
2013-09-23 11:09:00,59.9,44.6,29.96,North,0,0.0,0.0,57,0.00,,,0.00,WUHU216HW,2013-09-23 15:09:00,
2013-09-23 11:10:00,60.1,44.8,29.96,North,0,0.0,0.0,57,0.00,,,0.00,WUHU216HW,2013-09-23 15:10:00,
2013-09-23 11:11:00,60.3,45.0,29.96,North,0,0.0,0.0,57,0.00,,,0.00,WUHU216HW,2013-09-23 15:11:00,
2013-09-23 11:12:00,60.3,45.0,29.96,North,0,0.0,0.0,57,0.00,,,0.00,WUHU216HW,2013-09-23 15:12:00,
2013-09-23 11:13:00,60.5,45.2,29.96,North,0,0.0,0.0,57,0.00,,,0.00,WUHU216HW,2013-09-23 15:13:00,
2013-09-23 11:14:00,60.7,45.4,29.96,North,0,0.0,0.0,57,0.00,,,0.00,WUHU216HW,2013-09-23 15:14:00,
2013-09-23 11:15:00,60.8,45.0,29.96,North,0,0.0,0.0,56,0.00,,,0.00,WUHU216HW,2013-09-23 15:15:00,
2013-09-23 11:16:00,61.2,45.8,29.96,North,0,0.0,0.0,57,0.00,,,0.00,WUHU216HW,2013-09-23 15:16:00,
2013-09-23 11:17:00,61.4,46.0,29.96,North,0,0.0,0.0,57,0.00,,,0.00,WUHU216HW,2013-09-23 15:17:00,
2013-09-23 11:18:00,61.6,46.2,29.96,North,0,0.0,0.0,57,0.00,,,0.00,WUHU216HW,2013-09-23 15:18:00,
2013-09-23 11:19:00,61.7,46.4,29.96,North,0,0.0,0.0,57,0.00,,,0.00,WUHU216HW,2013-09-23 15:19:00,
2013-09-23 11:20:00,61.9,46.5,29.96,North,0,0.0,0.0,57,0.00,,,0.00,WUHU216HW,2013-09-23 15:20:00,
2013-09-23 11:22:00,62.5,46.5,29.96,North,0,0.0,0.0,56,0.00,,,0.00,WUHU216HW,2013-09-23 15:22:00,
2013-09-23 11:24:00,62.8,46.4,29.96,North,0,0.0,0.0,55,0.00,,,0.00,WUHU216HW,2013-09-23 15:24:00,
2013-09-23 11:25:00,63.2,46.2,29.96,North,0,0.0,0.0,54,0.00,,,0.00,WUHU216HW,2013-09-23 15:25:00,
2013-09-23 11:27:00,63.5,45.6,29.96,North,0,0.0,0.0,52,0.00,,,0.00,WUHU216HW,2013-09-23 15:27:00,
2013-09-23 11:29:00,63.7,46.2,29.96,North,0,0.0,0.0,53,0.00,,,0.00,WUHU216HW,2013-09-23 15:29:00,
2013-09-23 11:30:00,63.9,46.8,29.96,North,0,0.0,0.0,54,0.00,,,0.00,WUHU216HW,2013-09-23 15:30:00,
2013-09-23 11:31:00,64.1,47.0,29.96,North,0,0.0,0.0,54,0.00,,,0.00,WUHU216HW,2013-09-23 15:31:00,
2013-09-23 11:32:00,64.4,46.8,29.96,North,0,0.0,0.0,53,0.00,,,0.00,WUHU216HW,2013-09-23 15:32:00,
2013-09-23 11:33:00,64.4,46.8,29.96,North,0,0.0,0.0,53,0.00,,,0.00,WUHU216HW,2013-09-23 15:33:00,
2013-09-23 11:34:00,64.4,46.4,29.96,North,0,0.0,0.0,52,0.00,,,0.00,WUHU216HW,2013-09-23 15:34:00,
2013-09-23 11:35:00,64.4,45.8,29.96,North,0,0.0,0.0,51,0.00,,,0.00,WUHU216HW,2013-09-23 15:35:00,
2013-09-23 11:36:00,64.4,45.8,29.96,North,0,0.0,0.0,51,0.00,,,0.00,WUHU216HW,2013-09-23 15:36:00,
2013-09-23 11:37:00,64.4,46.4,29.96,North,0,0.0,0.0,52,0.00,,,0.00,WUHU216HW,2013-09-23 15:37:00,
2013-09-23 11:38:00,64.4,46.4,29.96,North,0,0.0,0.0,52,0.00,,,0.00,WUHU216HW,2013-09-23 15:38:00,
2013-09-23 11:39:00,64.4,45.8,29.96,North,0,0.0,0.0,51,0.00,,,0.00,WUHU216HW,2013-09-23 15:39:00,
2013-09-23 11:41:00,64.4,45.8,29.96,North,0,0.0,0.0,51,0.00,,,0.00,WUHU216HW,2013-09-23 15:41:00,
2013-09-23 11:43:00,64.6,45.0,29.96,North,0,0.0,0.0,49,0.00,,,0.00,WUHU216HW,2013-09-23 15:43:00,
2013-09-23 11:44:00,64.4,44.2,29.96,North,0,0.0,0.0,48,0.00,,,0.00,WUHU216HW,2013-09-23 15:44:00,
2013-09-23 11:46:00,64.4,44.8,29.96,North,0,0.0,0.0,49,0.00,,,0.00,WUHU216HW,2013-09-23 15:46:00,
2013-09-23 11:48:00,64.1,44.5,29.95,North,0,0.0,0.0,49,0.00,,,0.00,WUHU216HW,2013-09-23 15:48:00,
2013-09-23 11:49:00,63.9,44.3,29.95,North,0,0.0,0.0,49,0.00,,,0.00,WUHU216HW,2013-09-23 15:49:00,
2013-09-23 11:51:00,63.7,44.7,29.95,North,0,0.0,0.0,50,0.00,,,0.00,WUHU216HW,2013-09-23 15:51:00,
2013-09-23 11:53:00,64.1,45.0,29.95,North,0,0.0,0.0,50,0.00,,,0.00,WUHU216HW,2013-09-23 15:53:00,
2013-09-23 11:55:00,64.3,45.7,29.95,North,0,0.0,0.0,51,0.00,,,0.00,WUHU216HW,2013-09-23 15:55:00,
2013-09-23 11:56:00,64.4,45.8,29.95,North,0,0.0,0.0,51,0.00,,,0.00,WUHU216HW,2013-09-23 15:56:00,
2013-09-23 11:58:00,64.8,46.2,29.95,North,0,0.0,0.0,51,0.00,,,0.00,WUHU216HW,2013-09-23 15:58:00,
2013-09-23 11:59:00,64.8,45.2,29.95,North,0,0.0,0.0,49,0.00,,,0.00,WUHU216HW,2013-09-23 15:59:00,
2013-09-23 12:00:00,65.2,45.6,29.95,North,0,0.0,0.0,49,0.00,,,0.00,WUHU216HW,2013-09-23 16:00:00,
2013-09-23 12:01:00,65.2,45.6,29.95,North,0,0.0,0.0,49,0.00,,,0.00,WUHU216HW,2013-09-23 16:01:00,
2013-09-23 12:03:00,65.3,45.7,29.95,North,0,0.0,0.0,49,0.00,,,0.00,WUHU216HW,2013-09-23 16:03:00,
2013-09-23 12:04:00,65.3,45.1,29.95,North,0,0.0,0.0,48,0.00,,,0.00,WUHU216HW,2013-09-23 16:04:00,
2013-09-23 12:05:00,65.2,43.7,29.95,North,0,0.0,0.0,46,0.00,,,0.00,WUHU216HW,2013-09-23 16:05:00,
2013-09-23 12:06:00,65.2,44.4,29.95,North,0,0.0,0.0,47,0.00,,,0.00,WUHU216HW,2013-09-23 16:06:00,
2013-09-23 12:08:00,64.8,44.6,29.95,North,0,0.0,0.0,48,0.00,,,0.00,WUHU216HW,2013-09-23 16:08:00,
2013-09-23 12:09:00,64.6,45.0,29.95,North,0,0.0,0.0,49,0.00,,,0.00,WUHU216HW,2013-09-23 16:09:00,
2013-09-23 12:10:00,64.6,43.8,29.95,North,0,0.0,0.0,47,0.00,,,0.00,WUHU216HW,2013-09-23 16:10:00,
2013-09-23 12:11:00,64.6,43.8,29.95,North,0,0.0,0.0,47,0.00,,,0.00,WUHU216HW,2013-09-23 16:11:00,
2013-09-23 12:14:00,64.4,44.2,29.95,North,0,0.0,0.0,48,0.00,,,0.00,WUHU216HW,2013-09-23 16:14:00,
2013-09-23 12:15:00,64.6,44.4,29.95,North,0,0.0,0.0,48,0.00,,,0.00,WUHU216HW,2013-09-23 16:15:00,
2013-09-23 12:16:00,64.6,44.4,29.95,North,0,0.0,0.0,48,0.00,,,0.00,WUHU216HW,2013-09-23 16:16:00,
2013-09-23 12:19:00,64.8,45.2,29.95,North,0,0.0,0.0,49,0.00,,,0.00,WUHU216HW,2013-09-23 16:19:00,
2013-09-23 12:20:00,64.8,45.2,29.95,North,0,0.0,0.0,49,0.00,,,0.00,WUHU216HW,2013-09-23 16:20:00,
2013-09-23 12:21:00,64.6,45.0,29.95,North,0,0.0,0.0,49,0.00,,,0.00,WUHU216HW,2013-09-23 16:21:00,
2013-09-23 12:22:00,64.6,45.0,29.95,North,0,0.0,0.0,49,0.00,,,0.00,WUHU216HW,2013-09-23 16:22:00,
2013-09-23 12:24:00,64.6,45.0,29.95,North,0,0.0,0.0,49,0.00,,,0.00,WUHU216HW,2013-09-23 16:24:00,
2013-09-23 12:25:00,64.8,45.7,29.95,North,0,0.0,0.0,50,0.00,,,0.00,WUHU216HW,2013-09-23 16:25:00,
2013-09-23 12:27:00,64.8,45.7,29.95,North,0,0.0,0.0,50,0.00,,,0.00,WUHU216HW,2013-09-23 16:27:00,
2013-09-23 12:29:00,65.2,45.6,29.95,North,0,0.0,0.0,49,0.00,,,0.00,WUHU216HW,2013-09-23 16:29:00,
2013-09-23 12:30:00,65.2,44.9,29.95,North,0,0.0,0.0,48,0.00,,,0.00,WUHU216HW,2013-09-23 16:30:00,
2013-09-23 12:31:00,65.2,44.4,29.95,North,0,0.0,0.0,47,0.00,,,0.00,WUHU216HW,2013-09-23 16:31:00,
2013-09-23 12:32:00,65.2,44.4,29.95,North,0,0.0,0.0,47,0.00,,,0.00,WUHU216HW,2013-09-23 16:32:00,
2013-09-23 12:34:00,65.0,44.7,29.95,North,0,0.0,0.0,48,0.00,,,0.00,WUHU216HW,2013-09-23 16:34:00,
2013-09-23 12:35:00,65.0,44.2,29.95,North,0,0.0,0.0,47,0.00,,,0.00,WUHU216HW,2013-09-23 16:35:00,
2013-09-23 12:36:00,65.0,44.7,29.95,North,0,0.0,0.0,48,0.00,,,0.00,WUHU216HW,2013-09-23 16:36:00,
2013-09-23 12:37:00,65.0,44.2,29.95,North,0,0.0,0.0,47,0.00,,,0.00,WUHU216HW,2013-09-23 16:37:00,
2013-09-23 12:39:00,65.0,44.7,29.95,North,0,0.0,0.0,48,0.00,,,0.00,WUHU216HW,2013-09-23 16:39:00,
2013-09-23 12:40:00,64.8,44.6,29.95,North,0,0.0,0.0,48,0.00,,,0.00,WUHU216HW,2013-09-23 16:40:00,
2013-09-23 12:41:00,64.8,44.6,29.95,North,0,0.0,0.0,48,0.00,,,0.00,WUHU216HW,2013-09-23 16:41:00,
2013-09-23 12:42:00,64.8,44.6,29.95,North,0,0.0,0.0,48,0.00,,,0.00,WUHU216HW,2013-09-23 16:42:00,
2013-09-23 12:43:00,64.8,44.0,29.95,North,0,0.0,0.0,47,0.00,,,0.00,WUHU216HW,2013-09-23 16:43:00,
2013-09-23 12:45:00,64.6,44.4,29.95,North,0,0.0,0.0,48,0.00,,,0.00,WUHU216HW,2013-09-23 16:45:00,
2013-09-23 12:46:00,64.8,44.6,29.95,North,0,0.0,0.0,48,0.00,,,0.00,WUHU216HW,2013-09-23 16:46:00,
2013-09-23 12:47:00,64.8,44.6,29.95,North,0,0.0,0.0,48,0.00,,,0.00,WUHU216HW,2013-09-23 16:47:00,
2013-09-23 12:48:00,64.8,44.6,29.95,North,0,0.0,0.0,48,0.00,,,0.00,WUHU216HW,2013-09-23 16:48:00,
2013-09-23 12:50:00,65.0,44.7,29.95,North,0,0.0,0.0,48,0.00,,,0.00,WUHU216HW,2013-09-23 16:50:00,
2013-09-23 12:51:00,65.2,44.9,29.95,North,0,0.0,0.0,48,0.00,,,0.00,WUHU216HW,2013-09-23 16:51:00,
2013-09-23 12:52:00,65.2,45.6,29.95,North,0,0.0,0.0,49,0.00,,,0.00,WUHU216HW,2013-09-23 16:52:00,
2013-09-23 12:53:00,65.3,45.1,29.95,North,0,0.0,0.0,48,0.00,,,0.00,WUHU216HW,2013-09-23 16:53:00,
2013-09-23 12:55:00,65.3,45.1,29.95,North,0,0.0,0.0,48,0.00,,,0.00,WUHU216HW,2013-09-23 16:55:00,
2013-09-23 12:56:00,65.3,45.1,29.95,North,0,0.0,0.0,48,0.00,,,0.00,WUHU216HW,2013-09-23 16:56:00,
2013-09-23 12:57:00,65.3,45.1,29.95,North,0,0.0,0.0,48,0.00,,,0.00,WUHU216HW,2013-09-23 16:57:00,
2013-09-23 12:59:00,65.2,43.7,29.94,North,0,0.0,0.0,46,0.00,,,0.00,WUHU216HW,2013-09-23 16:59:00,
2013-09-23 13:00:00,65.0,44.2,29.94,North,0,0.0,0.0,47,0.00,,,0.00,WUHU216HW,2013-09-23 17:00:00,
2013-09-23 13:02:00,65.0,44.7,29.94,North,0,0.0,0.0,48,0.00,,,0.00,WUHU216HW,2013-09-23 17:02:00,
2013-09-23 13:03:00,65.2,44.9,29.94,North,0,0.0,0.0,48,0.00,,,0.00,WUHU216HW,2013-09-23 17:03:00,
2013-09-23 13:04:00,65.2,44.9,29.94,North,0,0.0,0.0,48,0.00,,,0.00,WUHU216HW,2013-09-23 17:04:00,
2013-09-23 13:05:00,65.2,44.9,29.94,North,0,0.0,0.0,48,0.00,,,0.00,WUHU216HW,2013-09-23 17:05:00,
2013-09-23 13:07:00,65.2,44.9,29.94,North,0,0.0,0.0,48,0.00,,,0.00,WUHU216HW,2013-09-23 17:07:00,
2013-09-23 13:08:00,65.2,44.9,29.94,North,0,0.0,0.0,48,0.00,,,0.00,WUHU216HW,2013-09-23 17:08:00,
2013-09-23 13:09:00,65.5,45.8,29.94,North,0,0.0,0.0,49,0.00,,,0.00,WUHU216HW,2013-09-23 17:09:00,
2013-09-23 13:10:00,65.5,45.8,29.94,North,0,0.0,0.0,49,0.00,,,0.00,WUHU216HW,2013-09-23 17:10:00,
2013-09-23 13:12:00,65.7,45.5,29.94,North,0,0.0,0.0,48,0.00,,,0.00,WUHU216HW,2013-09-23 17:12:00,
2013-09-23 13:13:00,65.7,46.0,29.94,North,0,0.0,0.0,49,0.00,,,0.00,WUHU216HW,2013-09-23 17:13:00,
2013-09-23 13:14:00,65.7,45.5,29.94,North,0,0.0,0.0,48,0.00,,,0.00,WUHU216HW,2013-09-23 17:14:00,
2013-09-23 13:15:00,65.5,44.1,29.94,North,0,0.0,0.0,46,0.00,,,0.00,WUHU216HW,2013-09-23 17:15:00,
2013-09-23 13:17:00,65.3,44.5,29.94,North,0,0.0,0.0,47,0.00,,,0.00,WUHU216HW,2013-09-23 17:17:00,
2013-09-23 13:18:00,65.3,44.5,29.94,North,0,0.0,0.0,47,0.00,,,0.00,WUHU216HW,2013-09-23 17:18:00,
2013-09-23 13:19:00,65.3,45.1,29.94,North,0,0.0,0.0,48,0.00,,,0.00,WUHU216HW,2013-09-23 17:19:00,
2013-09-23 13:20:00,65.5,44.6,29.94,North,0,0.0,0.0,47,0.00,,,0.00,WUHU216HW,2013-09-23 17:20:00,
2013-09-23 13:23:00,65.7,44.8,29.94,North,0,0.0,0.0,47,0.00,,,0.00,WUHU216HW,2013-09-23 17:23:00,
2013-09-23 13:25:00,65.7,45.5,29.94,North,0,0.0,0.0,48,0.00,,,0.00,WUHU216HW,2013-09-23 17:25:00,
2013-09-23 13:26:00,65.7,44.8,29.94,North,0,0.0,0.0,47,0.00,,,0.00,WUHU216HW,2013-09-23 17:26:00,
2013-09-23 13:28:00,65.7,43.7,29.94,North,0,0.0,0.0,45,0.00,,,0.00,WUHU216HW,2013-09-23 17:28:00,
2013-09-23 13:29:00,65.7,44.3,29.94,North,0,0.0,0.0,46,0.00,,,0.00,WUHU216HW,2013-09-23 17:29:00,
2013-09-23 13:30:00,65.9,45.0,29.94,North,0,0.0,0.0,47,0.00,,,0.00,WUHU216HW,2013-09-23 17:30:00,
2013-09-23 13:31:00,65.9,45.0,29.93,North,0,0.0,0.0,47,0.00,,,0.00,WUHU216HW,2013-09-23 17:31:00,
2013-09-23 13:33:00,65.9,45.0,29.94,North,0,0.0,0.0,47,0.00,,,0.00,WUHU216HW,2013-09-23 17:33:00,
2013-09-23 13:35:00,66.1,45.2,29.94,North,0,0.0,0.0,47,0.00,,,0.00,WUHU216HW,2013-09-23 17:35:00,
2013-09-23 13:36:00,66.1,45.2,29.93,North,0,0.0,0.0,47,0.00,,,0.00,WUHU216HW,2013-09-23 17:36:00,
2013-09-23 13:37:00,66.2,45.4,29.93,North,0,0.0,0.0,47,0.00,,,0.00,WUHU216HW,2013-09-23 17:37:00,
2013-09-23 13:38:00,66.2,45.4,29.94,North,0,0.0,0.0,47,0.00,,,0.00,WUHU216HW,2013-09-23 17:38:00,
2013-09-23 13:40:00,66.2,45.4,29.93,North,0,0.0,0.0,47,0.00,,,0.00,WUHU216HW,2013-09-23 17:40:00,
2013-09-23 13:41:00,66.2,45.4,29.93,North,0,0.0,0.0,47,0.00,,,0.00,WUHU216HW,2013-09-23 17:41:00,
2013-09-23 13:42:00,66.2,45.4,29.94,North,0,0.0,0.0,47,0.00,,,0.00,WUHU216HW,2013-09-23 17:42:00,
2013-09-23 13:43:00,66.4,45.5,29.93,North,0,0.0,0.0,47,0.00,,,0.00,WUHU216HW,2013-09-23 17:43:00,
2013-09-23 13:46:00,66.6,45.7,29.93,North,0,0.0,0.0,47,0.00,,,0.00,WUHU216HW,2013-09-23 17:46:00,
2013-09-23 13:47:00,66.6,45.7,29.93,North,0,0.0,0.0,47,0.00,,,0.00,WUHU216HW,2013-09-23 17:47:00,
2013-09-23 13:48:00,66.8,46.4,29.93,North,0,0.0,0.0,48,0.00,,,0.00,WUHU216HW,2013-09-23 17:48:00,
2013-09-23 13:49:00,66.6,45.7,29.93,North,0,0.0,0.0,47,0.00,,,0.00,WUHU216HW,2013-09-23 17:49:00,
2013-09-23 13:51:00,67.0,46.6,29.93,North,0,0.0,0.0,48,0.00,,,0.00,WUHU216HW,2013-09-23 17:51:00,
2013-09-23 13:52:00,67.0,46.0,29.93,North,0,0.0,0.0,47,0.00,,,0.00,WUHU216HW,2013-09-23 17:52:00,
2013-09-23 13:53:00,67.3,47.0,29.93,North,0,0.0,0.0,48,0.00,,,0.00,WUHU216HW,2013-09-23 17:53:00,
2013-09-23 13:54:00,67.3,46.4,29.93,North,0,0.0,0.0,47,0.00,,,0.00,WUHU216HW,2013-09-23 17:54:00,
2013-09-23 13:56:00,67.5,47.1,29.93,North,0,0.0,0.0,48,0.00,,,0.00,WUHU216HW,2013-09-23 17:56:00,
2013-09-23 13:57:00,67.5,46.5,29.93,North,0,0.0,0.0,47,0.00,,,0.00,WUHU216HW,2013-09-23 17:57:00,
2013-09-23 13:59:00,67.7,46.7,29.93,North,0,0.0,0.0,47,0.00,,,0.00,WUHU216HW,2013-09-23 17:59:00,
2013-09-23 14:01:00,67.7,46.7,29.93,North,0,0.0,0.0,47,0.00,,,0.00,WUHU216HW,2013-09-23 18:01:00,
2013-09-23 14:02:00,67.7,46.7,29.93,North,0,0.0,0.0,47,0.00,,,0.00,WUHU216HW,2013-09-23 18:02:00,
2013-09-23 14:04:00,67.7,46.7,29.93,North,0,0.0,0.0,47,0.00,,,0.00,WUHU216HW,2013-09-23 18:04:00,
2013-09-23 14:06:00,67.5,45.4,29.92,North,0,0.0,0.0,45,0.00,,,0.00,WUHU216HW,2013-09-23 18:06:00,
2013-09-23 14:07:00,67.3,45.7,29.93,North,0,0.0,0.0,46,0.00,,,0.00,WUHU216HW,2013-09-23 18:07:00,
2013-09-23 14:08:00,67.3,45.7,29.93,North,0,0.0,0.0,46,0.00,,,0.00,WUHU216HW,2013-09-23 18:08:00,
2013-09-23 14:09:00,67.3,46.4,29.93,North,0,0.0,0.0,47,0.00,,,0.00,WUHU216HW,2013-09-23 18:09:00,
2013-09-23 14:11:00,67.3,45.7,29.93,North,0,0.0,0.0,46,0.00,,,0.00,WUHU216HW,2013-09-23 18:11:00,
2013-09-23 14:12:00,67.3,46.4,29.92,North,0,0.0,0.0,47,0.00,,,0.00,WUHU216HW,2013-09-23 18:12:00,
2013-09-23 14:13:00,67.3,45.7,29.92,North,0,0.0,0.0,46,0.00,,,0.00,WUHU216HW,2013-09-23 18:13:00,
2013-09-23 14:14:00,67.3,45.7,29.93,North,0,0.0,0.0,46,0.00,,,0.00,WUHU216HW,2013-09-23 18:14:00,
2013-09-23 14:16:00,67.3,45.2,29.92,North,0,0.0,0.0,45,0.00,,,0.00,WUHU216HW,2013-09-23 18:16:00,
2013-09-23 14:18:00,67.3,45.2,29.93,North,0,0.0,0.0,45,0.00,,,0.00,WUHU216HW,2013-09-23 18:18:00,
2013-09-23 14:20:00,67.0,44.8,29.92,North,0,0.0,0.0,45,0.00,,,0.00,WUHU216HW,2013-09-23 18:20:00,
2013-09-23 14:21:00,67.0,45.5,29.92,North,0,0.0,0.0,46,0.00,,,0.00,WUHU216HW,2013-09-23 18:21:00,
2013-09-23 14:23:00,67.0,44.8,29.92,North,0,0.0,0.0,45,0.00,,,0.00,WUHU216HW,2013-09-23 18:23:00,
2013-09-23 14:25:00,67.0,44.3,29.93,North,0,0.0,0.0,44,0.00,,,0.00,WUHU216HW,2013-09-23 18:25:00,
2013-09-23 14:26:00,67.0,44.8,29.92,North,0,0.0,0.0,45,0.00,,,0.00,WUHU216HW,2013-09-23 18:26:00,
2013-09-23 14:28:00,67.0,44.8,29.92,North,0,0.0,0.0,45,0.00,,,0.00,WUHU216HW,2013-09-23 18:28:00,
2013-09-23 14:29:00,67.0,44.8,29.92,North,0,0.0,0.0,45,0.00,,,0.00,WUHU216HW,2013-09-23 18:29:00,
2013-09-23 14:30:00,67.1,45.6,29.92,North,0,0.0,0.0,46,0.00,,,0.00,WUHU216HW,2013-09-23 18:30:00,
2013-09-23 14:31:00,67.3,45.2,29.92,North,0,0.0,0.0,45,0.00,,,0.00,WUHU216HW,2013-09-23 18:31:00,
2013-09-23 14:33:00,67.3,45.7,29.92,North,0,0.0,0.0,46,0.00,,,0.00,WUHU216HW,2013-09-23 18:33:00,
2013-09-23 14:34:00,67.3,45.7,29.92,North,0,0.0,0.0,46,0.00,,,0.00,WUHU216HW,2013-09-23 18:34:00,
2013-09-23 14:35:00,67.3,45.2,29.92,North,0,0.0,0.0,45,0.00,,,0.00,WUHU216HW,2013-09-23 18:35:00,
2013-09-23 14:36:00,67.1,45.0,29.92,North,0,0.0,0.0,45,0.00,,,0.00,WUHU216HW,2013-09-23 18:36:00,
2013-09-23 14:39:00,67.3,45.7,29.92,North,0,0.0,0.0,46,0.00,,,0.00,WUHU216HW,2013-09-23 18:39:00,
2013-09-23 14:40:00,67.3,45.7,29.93,North,0,0.0,0.0,46,0.00,,,0.00,WUHU216HW,2013-09-23 18:40:00,
2013-09-23 14:41:00,67.3,45.7,29.93,North,0,0.0,0.0,46,0.00,,,0.00,WUHU216HW,2013-09-23 18:41:00,
2013-09-23 14:42:00,67.3,45.2,29.92,North,0,0.0,0.0,45,0.00,,,0.00,WUHU216HW,2013-09-23 18:42:00,
2013-09-23 14:44:00,67.3,45.7,29.92,North,0,0.0,0.0,46,0.00,,,0.00,WUHU216HW,2013-09-23 18:44:00,
2013-09-23 14:45:00,67.3,45.7,29.92,North,0,0.0,0.0,46,0.00,,,0.00,WUHU216HW,2013-09-23 18:45:00,
2013-09-23 14:46:00,67.3,45.7,29.92,North,0,0.0,0.0,46,0.00,,,0.00,WUHU216HW,2013-09-23 18:46:00,
2013-09-23 14:47:00,67.3,45.2,29.92,North,0,0.0,0.0,45,0.00,,,0.00,WUHU216HW,2013-09-23 18:47:00,
2013-09-23 14:49:00,67.3,45.7,29.92,North,0,0.0,0.0,46,0.00,,,0.00,WUHU216HW,2013-09-23 18:49:00,
2013-09-23 14:50:00,67.3,45.7,29.92,North,0,0.0,0.0,46,0.00,,,0.00,WUHU216HW,2013-09-23 18:50:00,
2013-09-23 14:51:00,67.5,45.9,29.92,North,0,0.0,0.0,46,0.00,,,0.00,WUHU216HW,2013-09-23 18:51:00,
2013-09-23 14:52:00,67.7,46.1,29.92,North,0,0.0,0.0,46,0.00,,,0.00,WUHU216HW,2013-09-23 18:52:00,
2013-09-23 14:54:00,67.7,46.1,29.92,North,0,0.0,0.0,46,0.00,,,0.00,WUHU216HW,2013-09-23 18:54:00,
2013-09-23 14:55:00,67.9,46.3,29.92,North,0,0.0,0.0,46,0.00,,,0.00,WUHU216HW,2013-09-23 18:55:00,
2013-09-23 14:56:00,67.7,46.1,29.92,North,0,0.0,0.0,46,0.00,,,0.00,WUHU216HW,2013-09-23 18:56:00,
2013-09-23 14:57:00,67.9,46.3,29.92,North,0,0.0,0.0,46,0.00,,,0.00,WUHU216HW,2013-09-23 18:57:00,
2013-09-23 14:59:00,68.0,46.5,29.91,North,0,0.0,0.0,46,0.00,,,0.00,WUHU216HW,2013-09-23 18:59:00,
2013-09-23 15:01:00,68.2,46.0,29.92,North,0,0.0,0.0,45,0.00,,,0.00,WUHU216HW,2013-09-23 19:01:00,
2013-09-23 15:02:00,68.2,46.0,29.92,North,0,0.0,0.0,45,0.00,,,0.00,WUHU216HW,2013-09-23 19:02:00,
2013-09-23 15:04:00,68.4,46.7,29.92,North,0,0.0,0.0,46,0.00,,,0.00,WUHU216HW,2013-09-23 19:04:00,
2013-09-23 15:06:00,68.6,46.3,29.92,North,0,0.0,0.0,45,0.00,,,0.00,WUHU216HW,2013-09-23 19:06:00,
2013-09-23 15:07:00,68.4,46.2,29.92,North,0,0.0,0.0,45,0.00,,,0.00,WUHU216HW,2013-09-23 19:07:00,
2013-09-23 15:08:00,68.4,45.5,29.92,North,0,0.0,0.0,44,0.00,,,0.00,WUHU216HW,2013-09-23 19:08:00,
2013-09-23 15:09:00,68.2,46.0,29.92,North,0,0.0,0.0,45,0.00,,,0.00,WUHU216HW,2013-09-23 19:09:00,
2013-09-23 15:11:00,68.0,45.8,29.91,North,0,0.0,0.0,45,0.00,,,0.00,WUHU216HW,2013-09-23 19:11:00,
2013-09-23 15:12:00,68.0,45.2,29.91,North,0,0.0,0.0,44,0.00,,,0.00,WUHU216HW,2013-09-23 19:12:00,
2013-09-23 15:13:00,68.0,45.2,29.91,North,0,0.0,0.0,44,0.00,,,0.00,WUHU216HW,2013-09-23 19:13:00,
2013-09-23 15:15:00,67.9,45.1,29.92,North,0,0.0,0.0,44,0.00,,,0.00,WUHU216HW,2013-09-23 19:15:00,
2013-09-23 15:16:00,67.7,45.5,29.92,North,0,0.0,0.0,45,0.00,,,0.00,WUHU216HW,2013-09-23 19:16:00,
2013-09-23 15:17:00,67.7,44.9,29.92,North,0,0.0,0.0,44,0.00,,,0.00,WUHU216HW,2013-09-23 19:17:00,
2013-09-23 15:18:00,67.7,44.3,29.92,North,0,0.0,0.0,43,0.00,,,0.00,WUHU216HW,2013-09-23 19:18:00,
2013-09-23 15:20:00,67.5,45.4,29.92,North,0,0.0,0.0,45,0.00,,,0.00,WUHU216HW,2013-09-23 19:20:00,
2013-09-23 15:21:00,67.7,46.1,29.92,North,0,0.0,0.0,46,0.00,,,0.00,WUHU216HW,2013-09-23 19:21:00,
2013-09-23 15:22:00,67.7,46.1,29.92,North,0,0.0,0.0,46,0.00,,,0.00,WUHU216HW,2013-09-23 19:22:00,
2013-09-23 15:23:00,67.7,46.1,29.92,North,0,0.0,0.0,46,0.00,,,0.00,WUHU216HW,2013-09-23 19:23:00,
2013-09-23 15:25:00,67.9,46.3,29.92,North,0,0.0,0.0,46,0.00,,,0.00,WUHU216HW,2013-09-23 19:25:00,
2013-09-23 15:27:00,68.0,46.5,29.92,North,0,0.0,0.0,46,0.00,,,0.00,WUHU216HW,2013-09-23 19:27:00,
2013-09-23 15:28:00,68.0,45.8,29.92,North,0,0.0,0.0,45,0.00,,,0.00,WUHU216HW,2013-09-23 19:28:00,
2013-09-23 15:31:00,68.0,46.5,29.92,North,0,0.0,0.0,46,0.00,,,0.00,WUHU216HW,2013-09-23 19:31:00,
2013-09-23 15:32:00,68.0,46.5,29.91,North,0,0.0,0.0,46,0.00,,,0.00,WUHU216HW,2013-09-23 19:32:00,
2013-09-23 15:34:00,68.0,45.8,29.91,North,0,0.0,0.0,45,0.00,,,0.00,WUHU216HW,2013-09-23 19:34:00,
2013-09-23 15:36:00,67.9,45.6,29.92,North,0,0.0,0.0,45,0.00,,,0.00,WUHU216HW,2013-09-23 19:36:00,
2013-09-23 15:37:00,67.9,45.6,29.92,North,0,0.0,0.0,45,0.00,,,0.00,WUHU216HW,2013-09-23 19:37:00,
2013-09-23 15:39:00,67.9,46.3,29.92,North,0,0.0,0.0,46,0.00,,,0.00,WUHU216HW,2013-09-23 19:39:00,
2013-09-23 15:41:00,68.0,46.5,29.92,North,0,0.0,0.0,46,0.00,,,0.00,WUHU216HW,2013-09-23 19:41:00,
2013-09-23 15:42:00,68.0,46.5,29.91,North,0,0.0,0.0,46,0.00,,,0.00,WUHU216HW,2013-09-23 19:42:00,
2013-09-23 15:44:00,68.2,46.5,29.92,North,0,0.0,0.0,46,0.00,,,0.00,WUHU216HW,2013-09-23 19:44:00,
2013-09-23 15:46:00,68.2,46.0,29.91,North,0,0.0,0.0,45,0.00,,,0.00,WUHU216HW,2013-09-23 19:46:00,
2013-09-23 15:47:00,68.0,45.2,29.91,North,0,0.0,0.0,44,0.00,,,0.00,WUHU216HW,2013-09-23 19:47:00,
2013-09-23 15:48:00,68.0,45.2,29.92,North,0,0.0,0.0,44,0.00,,,0.00,WUHU216HW,2013-09-23 19:48:00,
2013-09-23 15:49:00,68.0,45.8,29.91,North,0,0.0,0.0,45,0.00,,,0.00,WUHU216HW,2013-09-23 19:49:00,
2013-09-23 15:51:00,68.0,45.8,29.91,North,0,0.0,0.0,45,0.00,,,0.00,WUHU216HW,2013-09-23 19:51:00,
2013-09-23 15:52:00,68.2,46.0,29.91,North,0,0.0,0.0,45,0.00,,,0.00,WUHU216HW,2013-09-23 19:52:00,
2013-09-23 15:53:00,68.0,45.8,29.91,North,0,0.0,0.0,45,0.00,,,0.00,WUHU216HW,2013-09-23 19:53:00,
2013-09-23 15:54:00,68.2,46.0,29.91,North,0,0.0,0.0,45,0.00,,,0.00,WUHU216HW,2013-09-23 19:54:00,
2013-09-23 15:55:00,68.2,46.0,29.91,North,0,0.0,0.0,45,0.00,,,0.00,WUHU216HW,2013-09-23 19:55:00,
2013-09-23 15:56:00,68.4,46.2,29.91,North,0,0.0,0.0,45,0.00,,,0.00,WUHU216HW,2013-09-23 19:56:00,
2013-09-23 15:57:00,68.4,46.7,29.91,North,0,0.0,0.0,46,0.00,,,0.00,WUHU216HW,2013-09-23 19:57:00,
2013-09-23 15:58:00,68.4,46.2,29.91,North,0,0.0,0.0,45,0.00,,,0.00,WUHU216HW,2013-09-23 19:58:00,
2013-09-23 15:59:00,68.4,46.7,29.91,North,0,0.0,0.0,46,0.00,,,0.00,WUHU216HW,2013-09-23 19:59:00,
2013-09-23 16:00:00,68.4,46.7,29.91,North,0,0.0,0.0,46,0.00,,,0.00,WUHU216HW,2013-09-23 20:00:00,
2013-09-23 16:01:00,68.6,46.9,29.91,North,0,0.0,0.0,46,0.00,,,0.00,WUHU216HW,2013-09-23 20:01:00,
2013-09-23 16:03:00,68.8,47.1,29.91,North,0,0.0,0.0,46,0.00,,,0.00,WUHU216HW,2013-09-23 20:03:00,
2013-09-23 16:04:00,68.8,47.1,29.91,North,0,0.0,0.0,46,0.00,,,0.00,WUHU216HW,2013-09-23 20:04:00,
2013-09-23 16:05:00,68.8,46.4,29.91,North,0,0.0,0.0,45,0.00,,,0.00,WUHU216HW,2013-09-23 20:05:00,
2013-09-23 16:07:00,68.6,46.3,29.91,North,0,0.0,0.0,45,0.00,,,0.00,WUHU216HW,2013-09-23 20:07:00,
2013-09-23 16:08:00,68.4,46.7,29.91,North,0,0.0,0.0,46,0.00,,,0.00,WUHU216HW,2013-09-23 20:08:00,
2013-09-23 16:09:00,68.4,46.7,29.91,North,0,0.0,0.0,46,0.00,,,0.00,WUHU216HW,2013-09-23 20:09:00,
2013-09-23 16:10:00,68.4,46.7,29.91,North,0,0.0,0.0,46,0.00,,,0.00,WUHU216HW,2013-09-23 20:10:00,
2013-09-23 16:11:00,68.4,46.7,29.92,North,0,0.0,0.0,46,0.00,,,0.00,WUHU216HW,2013-09-23 20:11:00,
2013-09-23 16:12:00,68.4,46.7,29.91,North,0,0.0,0.0,46,0.00,,,0.00,WUHU216HW,2013-09-23 20:12:00,
2013-09-23 16:13:00,68.2,46.5,29.91,North,0,0.0,0.0,46,0.00,,,0.00,WUHU216HW,2013-09-23 20:13:00,
2013-09-23 16:14:00,68.2,46.5,29.91,North,0,0.0,0.0,46,0.00,,,0.00,WUHU216HW,2013-09-23 20:14:00,
2013-09-23 16:15:00,68.2,46.5,29.91,North,0,0.0,0.0,46,0.00,,,0.00,WUHU216HW,2013-09-23 20:15:00,
2013-09-23 16:16:00,68.2,46.5,29.91,North,0,0.0,0.0,46,0.00,,,0.00,WUHU216HW,2013-09-23 20:16:00,
2013-09-23 16:17:00,68.0,45.8,29.91,North,0,0.0,0.0,45,0.00,,,0.00,WUHU216HW,2013-09-23 20:17:00,
2013-09-23 16:18:00,68.0,45.8,29.91,North,0,0.0,0.0,45,0.00,,,0.00,WUHU216HW,2013-09-23 20:18:00,
2013-09-23 16:20:00,68.0,45.8,29.92,North,0,0.0,0.0,45,0.00,,,0.00,WUHU216HW,2013-09-23 20:20:00,
2013-09-23 16:22:00,68.0,45.8,29.91,North,0,0.0,0.0,45,0.00,,,0.00,WUHU216HW,2013-09-23 20:22:00,
2013-09-23 16:23:00,68.0,45.8,29.91,North,0,0.0,0.0,45,0.00,,,0.00,WUHU216HW,2013-09-23 20:23:00,
2013-09-23 16:25:00,68.0,46.5,29.92,North,0,0.0,0.0,46,0.00,,,0.00,WUHU216HW,2013-09-23 20:25:00,
2013-09-23 16:27:00,68.2,45.4,29.91,North,0,0.0,0.0,44,0.00,,,0.00,WUHU216HW,2013-09-23 20:27:00,
2013-09-23 16:28:00,68.2,46.0,29.91,North,0,0.0,0.0,45,0.00,,,0.00,WUHU216HW,2013-09-23 20:28:00,
2013-09-23 16:30:00,68.2,46.0,29.92,North,0,0.0,0.0,45,0.00,,,0.00,WUHU216HW,2013-09-23 20:30:00,
2013-09-23 16:32:00,68.4,46.2,29.91,North,0,0.0,0.0,45,0.00,,,0.00,WUHU216HW,2013-09-23 20:32:00,
2013-09-23 16:33:00,68.4,46.2,29.91,North,0,0.0,0.0,45,0.00,,,0.00,WUHU216HW,2013-09-23 20:33:00,
2013-09-23 16:36:00,68.4,46.2,29.92,North,0,0.0,0.0,45,0.00,,,0.00,WUHU216HW,2013-09-23 20:36:00,
2013-09-23 16:37:00,68.4,46.2,29.91,North,0,0.0,0.0,45,0.00,,,0.00,WUHU216HW,2013-09-23 20:37:00,
2013-09-23 16:38:00,68.4,46.2,29.91,North,0,0.0,0.0,45,0.00,,,0.00,WUHU216HW,2013-09-23 20:38:00,
2013-09-23 16:41:00,68.6,46.3,29.92,North,0,0.0,0.0,45,0.00,,,0.00,WUHU216HW,2013-09-23 20:41:00,
2013-09-23 16:42:00,68.8,46.4,29.92,North,0,0.0,0.0,45,0.00,,,0.00,WUHU216HW,2013-09-23 20:42:00,
2013-09-23 16:43:00,68.8,46.4,29.92,North,0,0.0,0.0,45,0.00,,,0.00,WUHU216HW,2013-09-23 20:43:00,
2013-09-23 16:46:00,68.8,46.4,29.92,North,0,0.0,0.0,45,0.00,,,0.00,WUHU216HW,2013-09-23 20:46:00,
2013-09-23 16:47:00,68.6,46.3,29.92,North,0,0.0,0.0,45,0.00,,,0.00,WUHU216HW,2013-09-23 20:47:00,
2013-09-23 16:48:00,68.6,46.3,29.92,North,0,0.0,0.0,45,0.00,,,0.00,WUHU216HW,2013-09-23 20:48:00,
2013-09-23 16:49:00,68.6,46.3,29.92,North,0,0.0,0.0,45,0.00,,,0.00,WUHU216HW,2013-09-23 20:49:00,
2013-09-23 16:51:00,68.8,46.4,29.92,North,0,0.0,0.0,45,0.00,,,0.00,WUHU216HW,2013-09-23 20:51:00,
2013-09-23 16:53:00,68.8,47.1,29.92,North,0,0.0,0.0,46,0.00,,,0.00,WUHU216HW,2013-09-23 20:53:00,
2013-09-23 16:54:00,68.8,47.1,29.92,North,0,0.0,0.0,46,0.00,,,0.00,WUHU216HW,2013-09-23 20:54:00,
2013-09-23 16:56:00,68.9,47.8,29.92,North,0,0.0,0.0,47,0.00,,,0.00,WUHU216HW,2013-09-23 20:56:00,
2013-09-23 16:58:00,68.9,47.8,29.92,North,0,0.0,0.0,47,0.00,,,0.00,WUHU216HW,2013-09-23 20:58:00,
2013-09-23 16:59:00,68.9,47.8,29.92,North,0,0.0,0.0,47,0.00,,,0.00,WUHU216HW,2013-09-23 20:59:00,
2013-09-23 17:01:00,68.9,47.8,29.92,North,0,0.0,0.0,47,0.00,,,0.00,WUHU216HW,2013-09-23 21:01:00,
2013-09-23 17:03:00,69.1,48.0,29.92,North,0,0.0,0.0,47,0.00,,,0.00,WUHU216HW,2013-09-23 21:03:00,
2013-09-23 17:04:00,68.9,47.3,29.92,North,0,0.0,0.0,46,0.00,,,0.00,WUHU216HW,2013-09-23 21:04:00,
2013-09-23 17:07:00,68.9,47.8,29.92,North,0,0.0,0.0,47,0.00,,,0.00,WUHU216HW,2013-09-23 21:07:00,
2013-09-23 17:08:00,68.8,47.1,29.92,North,0,0.0,0.0,46,0.00,,,0.00,WUHU216HW,2013-09-23 21:08:00,
2013-09-23 17:09:00,68.8,47.1,29.92,North,0,0.0,0.0,46,0.00,,,0.00,WUHU216HW,2013-09-23 21:09:00,
2013-09-23 17:12:00,68.6,46.3,29.92,North,0,0.0,0.0,45,0.00,,,0.00,WUHU216HW,2013-09-23 21:12:00,
2013-09-23 17:13:00,68.4,46.2,29.92,North,0,0.0,0.0,45,0.00,,,0.00,WUHU216HW,2013-09-23 21:13:00,
2013-09-23 17:14:00,68.4,46.2,29.92,North,0,0.0,0.0,45,0.00,,,0.00,WUHU216HW,2013-09-23 21:14:00,
2013-09-23 17:17:00,68.2,46.5,29.92,North,0,0.0,0.0,46,0.00,,,0.00,WUHU216HW,2013-09-23 21:17:00,
2013-09-23 17:18:00,68.0,46.5,29.92,North,0,0.0,0.0,46,0.00,,,0.00,WUHU216HW,2013-09-23 21:18:00,
2013-09-23 17:19:00,68.0,46.5,29.92,North,0,0.0,0.0,46,0.00,,,0.00,WUHU216HW,2013-09-23 21:19:00,
2013-09-23 17:22:00,68.0,46.5,29.92,North,0,0.0,0.0,46,0.00,,,0.00,WUHU216HW,2013-09-23 21:22:00,
2013-09-23 17:23:00,68.0,46.5,29.92,North,0,0.0,0.0,46,0.00,,,0.00,WUHU216HW,2013-09-23 21:23:00,
2013-09-23 17:24:00,68.0,46.5,29.92,North,0,0.0,0.0,46,0.00,,,0.00,WUHU216HW,2013-09-23 21:24:00,
2013-09-23 17:25:00,68.0,46.5,29.92,North,0,0.0,0.0,46,0.00,,,0.00,WUHU216HW,2013-09-23 21:25:00,
2013-09-23 17:27:00,68.0,46.5,29.92,North,0,0.0,0.0,46,0.00,,,0.00,WUHU216HW,2013-09-23 21:27:00,
2013-09-23 17:28:00,68.0,46.5,29.92,North,0,0.0,0.0,46,0.00,,,0.00,WUHU216HW,2013-09-23 21:28:00,
2013-09-23 17:29:00,68.2,46.5,29.92,North,0,0.0,0.0,46,0.00,,,0.00,WUHU216HW,2013-09-23 21:29:00,
2013-09-23 17:30:00,68.2,46.5,29.92,North,0,0.0,0.0,46,0.00,,,0.00,WUHU216HW,2013-09-23 21:30:00,
2013-09-23 17:32:00,68.4,46.7,29.92,North,0,0.0,0.0,46,0.00,,,0.00,WUHU216HW,2013-09-23 21:32:00,
2013-09-23 17:33:00,68.4,46.2,29.93,North,0,0.0,0.0,45,0.00,,,0.00,WUHU216HW,2013-09-23 21:33:00,
2013-09-23 17:34:00,68.4,46.2,29.92,North,0,0.0,0.0,45,0.00,,,0.00,WUHU216HW,2013-09-23 21:34:00,
2013-09-23 17:35:00,68.4,46.2,29.92,North,0,0.0,0.0,45,0.00,,,0.00,WUHU216HW,2013-09-23 21:35:00,
2013-09-23 17:37:00,68.4,46.7,29.92,North,0,0.0,0.0,46,0.00,,,0.00,WUHU216HW,2013-09-23 21:37:00,
2013-09-23 17:38:00,68.4,46.7,29.93,North,0,0.0,0.0,46,0.00,,,0.00,WUHU216HW,2013-09-23 21:38:00,
2013-09-23 17:39:00,68.4,46.7,29.93,North,0,0.0,0.0,46,0.00,,,0.00,WUHU216HW,2013-09-23 21:39:00,
2013-09-23 17:41:00,68.6,46.9,29.93,North,0,0.0,0.0,46,0.00,,,0.00,WUHU216HW,2013-09-23 21:41:00,
2013-09-23 17:43:00,68.6,46.9,29.93,North,0,0.0,0.0,46,0.00,,,0.00,WUHU216HW,2013-09-23 21:43:00,
2013-09-23 17:44:00,68.8,47.1,29.93,North,0,0.0,0.0,46,0.00,,,0.00,WUHU216HW,2013-09-23 21:44:00,
2013-09-23 17:46:00,68.8,47.1,29.93,North,0,0.0,0.0,46,0.00,,,0.00,WUHU216HW,2013-09-23 21:46:00,
2013-09-23 17:48:00,68.8,47.1,29.93,North,0,0.0,0.0,46,0.00,,,0.00,WUHU216HW,2013-09-23 21:48:00,
2013-09-23 17:49:00,68.8,47.1,29.93,North,0,0.0,0.0,46,0.00,,,0.00,WUHU216HW,2013-09-23 21:49:00,
2013-09-23 17:51:00,68.8,47.1,29.92,North,0,0.0,0.0,46,0.00,,,0.00,WUHU216HW,2013-09-23 21:51:00,
2013-09-23 17:54:00,68.9,47.3,29.92,North,0,0.0,0.0,46,0.00,,,0.00,WUHU216HW,2013-09-23 21:54:00,
2013-09-23 17:56:00,68.8,47.1,29.93,North,0,0.0,0.0,46,0.00,,,0.00,WUHU216HW,2013-09-23 21:56:00,
2013-09-23 17:57:00,68.8,46.4,29.93,North,0,0.0,0.0,45,0.00,,,0.00,WUHU216HW,2013-09-23 21:57:00,
2013-09-23 17:59:00,68.8,47.6,29.92,North,0,0.0,0.0,47,0.00,,,0.00,WUHU216HW,2013-09-23 21:59:00,
2013-09-23 18:00:00,68.8,47.6,29.93,North,0,0.0,0.0,47,0.00,,,0.00,WUHU216HW,2013-09-23 22:00:00,
2013-09-23 18:01:00,68.8,46.4,29.93,North,0,0.0,0.0,45,0.00,,,0.00,WUHU216HW,2013-09-23 22:01:00,
2013-09-23 18:02:00,68.8,46.4,29.93,North,0,0.0,0.0,45,0.00,,,0.00,WUHU216HW,2013-09-23 22:02:00,
2013-09-23 18:04:00,68.4,46.7,29.93,North,0,0.0,0.0,46,0.00,,,0.00,WUHU216HW,2013-09-23 22:04:00,
2013-09-23 18:05:00,68.2,46.5,29.93,North,0,0.0,0.0,46,0.00,,,0.00,WUHU216HW,2013-09-23 22:05:00,
2013-09-23 18:06:00,67.9,46.3,29.93,North,0,0.0,0.0,46,0.00,,,0.00,WUHU216HW,2013-09-23 22:06:00,
2013-09-23 18:08:00,67.7,46.7,29.93,North,0,0.0,0.0,47,0.00,,,0.00,WUHU216HW,2013-09-23 22:08:00,
2013-09-23 18:09:00,67.1,46.2,29.93,North,0,0.0,0.0,47,0.00,,,0.00,WUHU216HW,2013-09-23 22:09:00,
2013-09-23 18:10:00,67.0,46.0,29.93,North,0,0.0,0.0,47,0.00,,,0.00,WUHU216HW,2013-09-23 22:10:00,
2013-09-23 18:11:00,66.6,46.3,29.93,North,0,0.0,0.0,48,0.00,,,0.00,WUHU216HW,2013-09-23 22:11:00,
2013-09-23 18:13:00,66.2,46.0,29.93,North,0,0.0,0.0,48,0.00,,,0.00,WUHU216HW,2013-09-23 22:13:00,
2013-09-23 18:14:00,66.2,46.0,29.93,North,0,0.0,0.0,48,0.00,,,0.00,WUHU216HW,2013-09-23 22:14:00,
2013-09-23 18:15:00,65.9,45.6,29.93,North,0,0.0,0.0,48,0.00,,,0.00,WUHU216HW,2013-09-23 22:15:00,
2013-09-23 18:17:00,65.7,46.0,29.93,North,0,0.0,0.0,49,0.00,,,0.00,WUHU216HW,2013-09-23 22:17:00,
2013-09-23 18:18:00,65.7,46.0,29.93,North,0,0.0,0.0,49,0.00,,,0.00,WUHU216HW,2013-09-23 22:18:00,
2013-09-23 18:19:00,65.5,46.4,29.94,North,0,0.0,0.0,50,0.00,,,0.00,WUHU216HW,2013-09-23 22:19:00,
2013-09-23 18:20:00,65.3,46.3,29.93,North,0,0.0,0.0,50,0.00,,,0.00,WUHU216HW,2013-09-23 22:20:00,
2013-09-23 18:21:00,65.2,46.1,29.94,North,0,0.0,0.0,50,0.00,,,0.00,WUHU216HW,2013-09-23 22:21:00,
2013-09-23 18:22:00,65.2,46.1,29.94,North,0,0.0,0.0,50,0.00,,,0.00,WUHU216HW,2013-09-23 22:22:00,
2013-09-23 18:23:00,65.2,46.1,29.94,North,0,0.0,0.0,50,0.00,,,0.00,WUHU216HW,2013-09-23 22:23:00,
2013-09-23 18:24:00,65.0,45.9,29.94,North,0,0.0,0.0,50,0.00,,,0.00,WUHU216HW,2013-09-23 22:24:00,
2013-09-23 18:25:00,64.8,45.7,29.94,North,0,0.0,0.0,50,0.00,,,0.00,WUHU216HW,2013-09-23 22:25:00,
2013-09-23 18:26:00,64.8,45.7,29.94,North,0,0.0,0.0,50,0.00,,,0.00,WUHU216HW,2013-09-23 22:26:00,
2013-09-23 18:27:00,64.8,46.2,29.94,North,0,0.0,0.0,51,0.00,,,0.00,WUHU216HW,2013-09-23 22:27:00,
2013-09-23 18:29:00,64.6,46.0,29.94,North,0,0.0,0.0,51,0.00,,,0.00,WUHU216HW,2013-09-23 22:29:00,
2013-09-23 18:30:00,64.4,45.8,29.93,North,0,0.0,0.0,51,0.00,,,0.00,WUHU216HW,2013-09-23 22:30:00,
2013-09-23 18:31:00,64.4,45.8,29.93,North,0,0.0,0.0,51,0.00,,,0.00,WUHU216HW,2013-09-23 22:31:00,
2013-09-23 18:32:00,64.3,45.7,29.94,North,0,0.0,0.0,51,0.00,,,0.00,WUHU216HW,2013-09-23 22:32:00,
2013-09-23 18:34:00,64.3,45.7,29.94,North,0,0.0,0.0,51,0.00,,,0.00,WUHU216HW,2013-09-23 22:34:00,
2013-09-23 18:35:00,64.1,45.6,29.94,North,0,0.0,0.0,51,0.00,,,0.00,WUHU216HW,2013-09-23 22:35:00,
2013-09-23 18:36:00,64.1,45.6,29.94,North,0,0.0,0.0,51,0.00,,,0.00,WUHU216HW,2013-09-23 22:36:00,
2013-09-23 18:37:00,64.1,45.6,29.94,North,0,0.0,0.0,51,0.00,,,0.00,WUHU216HW,2013-09-23 22:37:00,
2013-09-23 18:38:00,63.9,45.4,29.94,North,0,0.0,0.0,51,0.00,,,0.00,WUHU216HW,2013-09-23 22:38:00,
2013-09-23 18:39:00,63.9,45.4,29.94,North,0,0.0,0.0,51,0.00,,,0.00,WUHU216HW,2013-09-23 22:39:00,
2013-09-23 18:40:00,63.7,45.7,29.94,North,0,0.0,0.0,52,0.00,,,0.00,WUHU216HW,2013-09-23 22:40:00,
2013-09-23 18:42:00,63.7,45.7,29.94,North,0,0.0,0.0,52,0.00,,,0.00,WUHU216HW,2013-09-23 22:42:00,
2013-09-23 18:43:00,63.7,45.7,29.93,North,0,0.0,0.0,52,0.00,,,0.00,WUHU216HW,2013-09-23 22:43:00,
2013-09-23 18:44:00,63.5,45.6,29.94,North,0,0.0,0.0,52,0.00,,,0.00,WUHU216HW,2013-09-23 22:44:00,
2013-09-23 18:46:00,63.4,45.4,29.93,North,0,0.0,0.0,52,0.00,,,0.00,WUHU216HW,2013-09-23 22:46:00,
2013-09-23 18:47:00,63.4,45.4,29.94,North,0,0.0,0.0,52,0.00,,,0.00,WUHU216HW,2013-09-23 22:47:00,
2013-09-23 18:48:00,63.2,45.7,29.94,North,0,0.0,0.0,53,0.00,,,0.00,WUHU216HW,2013-09-23 22:48:00,
2013-09-23 18:50:00,63.0,45.6,29.94,North,0,0.0,0.0,53,0.00,,,0.00,WUHU216HW,2013-09-23 22:50:00,
2013-09-23 18:51:00,63.0,45.6,29.94,North,0,0.0,0.0,53,0.00,,,0.00,WUHU216HW,2013-09-23 22:51:00,
2013-09-23 18:53:00,63.0,45.6,29.94,North,0,0.0,0.0,53,0.00,,,0.00,WUHU216HW,2013-09-23 22:53:00,
2013-09-23 18:55:00,62.8,45.8,29.94,North,0,0.0,0.0,54,0.00,,,0.00,WUHU216HW,2013-09-23 22:55:00,
2013-09-23 18:56:00,62.8,45.8,29.94,North,0,0.0,0.0,54,0.00,,,0.00,WUHU216HW,2013-09-23 22:56:00,
2013-09-23 18:58:00,62.6,45.7,29.94,North,0,0.0,0.0,54,0.00,,,0.00,WUHU216HW,2013-09-23 22:58:00,
2013-09-23 19:02:00,62.5,45.6,29.94,North,0,0.0,0.0,54,0.00,,,0.00,WUHU216HW,2013-09-23 23:02:00,
2013-09-23 19:03:00,62.3,45.4,29.94,North,0,0.0,0.0,54,0.00,,,0.00,WUHU216HW,2013-09-23 23:03:00,
2013-09-23 19:07:00,62.3,45.8,29.94,North,0,0.0,0.0,55,0.00,,,0.00,WUHU216HW,2013-09-23 23:07:00,
2013-09-23 19:08:00,62.1,45.7,29.94,North,0,0.0,0.0,55,0.00,,,0.00,WUHU216HW,2013-09-23 23:08:00,
2013-09-23 19:12:00,61.9,46.0,29.94,North,0,0.0,0.0,56,0.00,,,0.00,WUHU216HW,2013-09-23 23:12:00,
2013-09-23 19:13:00,61.9,46.0,29.94,North,0,0.0,0.0,56,0.00,,,0.00,WUHU216HW,2013-09-23 23:13:00,
2013-09-23 19:14:00,61.9,46.0,29.94,North,0,0.0,0.0,56,0.00,,,0.00,WUHU216HW,2013-09-23 23:14:00,
2013-09-23 19:17:00,61.7,45.8,29.94,North,0,0.0,0.0,56,0.00,,,0.00,WUHU216HW,2013-09-23 23:17:00,
2013-09-23 19:18:00,61.7,46.4,29.94,North,0,0.0,0.0,57,0.00,,,0.00,WUHU216HW,2013-09-23 23:18:00,
2013-09-23 19:19:00,61.7,46.4,29.94,North,0,0.0,0.0,57,0.00,,,0.00,WUHU216HW,2013-09-23 23:19:00,
2013-09-23 19:22:00,61.6,46.2,29.94,North,0,0.0,0.0,57,0.00,,,0.00,WUHU216HW,2013-09-23 23:22:00,
2013-09-23 19:23:00,61.6,46.2,29.94,North,0,0.0,0.0,57,0.00,,,0.00,WUHU216HW,2013-09-23 23:23:00,
2013-09-23 19:24:00,61.6,46.2,29.94,North,0,0.0,0.0,57,0.00,,,0.00,WUHU216HW,2013-09-23 23:24:00,
2013-09-23 19:27:00,61.4,46.5,29.94,North,0,0.0,0.0,58,0.00,,,0.00,WUHU216HW,2013-09-23 23:27:00,
2013-09-23 19:28:00,61.4,46.5,29.94,North,0,0.0,0.0,58,0.00,,,0.00,WUHU216HW,2013-09-23 23:28:00,
2013-09-23 19:29:00,61.4,46.5,29.94,North,0,0.0,0.0,58,0.00,,,0.00,WUHU216HW,2013-09-23 23:29:00,
2013-09-23 19:30:00,61.4,46.5,29.94,North,0,0.0,0.0,58,0.00,,,0.00,WUHU216HW,2013-09-23 23:30:00,
2013-09-23 19:33:00,61.2,46.8,29.94,North,0,0.0,0.0,59,0.00,,,0.00,WUHU216HW,2013-09-23 23:33:00,
2013-09-23 19:34:00,61.2,46.8,29.94,North,0,0.0,0.0,59,0.00,,,0.00,WUHU216HW,2013-09-23 23:34:00,
2013-09-23 19:35:00,61.2,46.8,29.94,North,0,0.0,0.0,59,0.00,,,0.00,WUHU216HW,2013-09-23 23:35:00,
2013-09-23 19:38:00,61.0,46.6,29.94,North,0,0.0,0.0,59,0.00,,,0.00,WUHU216HW,2013-09-23 23:38:00,
2013-09-23 19:39:00,61.0,46.6,29.94,North,0,0.0,0.0,59,0.00,,,0.00,WUHU216HW,2013-09-23 23:39:00,
2013-09-23 19:40:00,61.0,46.6,29.94,North,0,0.0,0.0,59,0.00,,,0.00,WUHU216HW,2013-09-23 23:40:00,
2013-09-23 19:43:00,61.0,46.6,29.94,North,0,0.0,0.0,59,0.00,,,0.00,WUHU216HW,2013-09-23 23:43:00,
2013-09-23 19:44:00,61.0,46.6,29.95,North,0,0.0,0.0,59,0.00,,,0.00,WUHU216HW,2013-09-23 23:44:00,
2013-09-23 19:45:00,61.0,46.6,29.94,North,0,0.0,0.0,59,0.00,,,0.00,WUHU216HW,2013-09-23 23:45:00,
2013-09-23 19:48:00,60.8,46.5,29.94,North,0,0.0,0.0,59,0.00,,,0.00,WUHU216HW,2013-09-23 23:48:00,
2013-09-23 19:49:00,60.8,46.5,29.95,North,0,0.0,0.0,59,0.00,,,0.00,WUHU216HW,2013-09-23 23:49:00,
2013-09-23 19:50:00,60.8,46.5,29.95,North,0,0.0,0.0,59,0.00,,,0.00,WUHU216HW,2013-09-23 23:50:00,
2013-09-23 19:53:00,60.8,47.0,29.95,North,0,0.0,0.0,60,0.00,,,0.00,WUHU216HW,2013-09-23 23:53:00,
2013-09-23 19:54:00,60.8,47.0,29.95,North,0,0.0,0.0,60,0.00,,,0.00,WUHU216HW,2013-09-23 23:54:00,
2013-09-23 19:55:00,60.7,46.8,29.95,North,0,0.0,0.0,60,0.00,,,0.00,WUHU216HW,2013-09-23 23:55:00,
2013-09-23 19:56:00,60.7,46.8,29.95,North,0,0.0,0.0,60,0.00,,,0.00,WUHU216HW,2013-09-23 23:56:00,
2013-09-23 19:58:00,60.7,46.8,29.95,North,0,0.0,0.0,60,0.00,,,0.00,WUHU216HW,2013-09-23 23:58:00,
2013-09-23 19:59:00,60.5,47.1,29.95,North,0,0.0,0.0,61,0.00,,,0.00,WUHU216HW,2013-09-23 23:59:00,
2013-09-23 20:00:00,60.5,47.1,29.95,North,0,0.0,0.0,61,0.00,,,0.00,WUHU216HW,2013-09-24 00:00:00,
2013-09-23 20:01:00,60.5,47.1,29.95,North,0,0.0,0.0,61,0.00,,,0.00,WUHU216HW,2013-09-24 00:01:00,
2013-09-23 20:04:00,60.3,46.9,29.95,North,0,0.0,0.0,61,0.00,,,0.00,WUHU216HW,2013-09-24 00:04:00,
2013-09-23 20:05:00,60.3,46.9,29.95,North,0,0.0,0.0,61,0.00,,,0.00,WUHU216HW,2013-09-24 00:05:00,
2013-09-23 20:06:00,60.3,46.9,29.95,North,0,0.0,0.0,61,0.00,,,0.00,WUHU216HW,2013-09-24 00:06:00,
2013-09-23 20:09:00,60.1,46.7,29.95,North,0,0.0,0.0,61,0.00,,,0.00,WUHU216HW,2013-09-24 00:09:00,
2013-09-23 20:10:00,60.1,46.7,29.95,North,0,0.0,0.0,61,0.00,,,0.00,WUHU216HW,2013-09-24 00:10:00,
2013-09-23 20:11:00,60.1,47.1,29.95,North,0,0.0,0.0,62,0.00,,,0.00,WUHU216HW,2013-09-24 00:11:00,
2013-09-23 20:12:00,60.1,46.7,29.95,North,0,0.0,0.0,61,0.00,,,0.00,WUHU216HW,2013-09-24 00:12:00,
2013-09-23 20:14:00,59.9,46.5,29.95,North,0,0.0,0.0,61,0.00,,,0.00,WUHU216HW,2013-09-24 00:14:00,
2013-09-23 20:15:00,59.9,46.5,29.95,North,0,0.0,0.0,61,0.00,,,0.00,WUHU216HW,2013-09-24 00:15:00,
2013-09-23 20:16:00,59.9,46.9,29.96,North,0,0.0,0.0,62,0.00,,,0.00,WUHU216HW,2013-09-24 00:16:00,
2013-09-23 20:17:00,59.8,46.7,29.96,North,0,0.0,0.0,62,0.00,,,0.00,WUHU216HW,2013-09-24 00:17:00,
2013-09-23 20:19:00,59.8,46.7,29.96,North,0,0.0,0.0,62,0.00,,,0.00,WUHU216HW,2013-09-24 00:19:00,
2013-09-23 20:20:00,59.8,46.7,29.96,North,0,0.0,0.0,62,0.00,,,0.00,WUHU216HW,2013-09-24 00:20:00,
2013-09-23 20:21:00,59.6,46.5,29.96,North,0,0.0,0.0,62,0.00,,,0.00,WUHU216HW,2013-09-24 00:21:00,
2013-09-23 20:23:00,59.4,46.4,29.96,North,0,0.0,0.0,62,0.00,,,0.00,WUHU216HW,2013-09-24 00:23:00,
2013-09-23 20:24:00,59.4,46.4,29.96,North,0,0.0,0.0,62,0.00,,,0.00,WUHU216HW,2013-09-24 00:24:00,
2013-09-23 20:25:00,59.4,46.4,29.96,North,0,0.0,0.0,62,0.00,,,0.00,WUHU216HW,2013-09-24 00:25:00,
2013-09-23 20:26:00,59.4,46.8,29.96,North,0,0.0,0.0,63,0.00,,,0.00,WUHU216HW,2013-09-24 00:26:00,
2013-09-23 20:27:00,59.4,46.8,29.96,North,0,0.0,0.0,63,0.00,,,0.00,WUHU216HW,2013-09-24 00:27:00,
2013-09-23 20:28:00,59.2,46.6,29.96,North,0,0.0,0.0,63,0.00,,,0.00,WUHU216HW,2013-09-24 00:28:00,
2013-09-23 20:29:00,59.2,46.6,29.96,North,0,0.0,0.0,63,0.00,,,0.00,WUHU216HW,2013-09-24 00:29:00,
2013-09-23 20:30:00,59.0,46.5,29.96,North,0,0.0,0.0,63,0.00,,,0.00,WUHU216HW,2013-09-24 00:30:00,
2013-09-23 20:31:00,59.0,46.5,29.96,North,0,0.0,0.0,63,0.00,,,0.00,WUHU216HW,2013-09-24 00:31:00,
2013-09-23 20:32:00,59.0,46.5,29.96,North,0,0.0,0.0,63,0.00,,,0.00,WUHU216HW,2013-09-24 00:32:00,
2013-09-23 20:33:00,58.9,46.3,29.96,North,0,0.0,0.0,63,0.00,,,0.00,WUHU216HW,2013-09-24 00:33:00,
2013-09-23 20:34:00,58.9,46.3,29.96,North,0,0.0,0.0,63,0.00,,,0.00,WUHU216HW,2013-09-24 00:34:00,
2013-09-23 20:35:00,58.7,46.1,29.96,North,0,0.0,0.0,63,0.00,,,0.00,WUHU216HW,2013-09-24 00:35:00,
2013-09-23 20:37:00,58.7,46.1,29.96,North,0,0.0,0.0,63,0.00,,,0.00,WUHU216HW,2013-09-24 00:37:00,
2013-09-23 20:38:00,58.7,46.5,29.96,North,0,0.0,0.0,64,0.00,,,0.00,WUHU216HW,2013-09-24 00:38:00,
2013-09-23 20:40:00,58.5,46.4,29.96,North,0,0.0,0.0,64,0.00,,,0.00,WUHU216HW,2013-09-24 00:40:00,
2013-09-23 20:42:00,58.5,46.4,29.96,North,0,0.0,0.0,64,0.00,,,0.00,WUHU216HW,2013-09-24 00:42:00,
2013-09-23 20:43:00,58.5,46.4,29.96,North,0,0.0,0.0,64,0.00,,,0.00,WUHU216HW,2013-09-24 00:43:00,
2013-09-23 20:45:00,58.3,46.2,29.96,North,0,0.0,0.0,64,0.00,,,0.00,WUHU216HW,2013-09-24 00:45:00,
2013-09-23 20:47:00,58.3,46.2,29.96,North,0,0.0,0.0,64,0.00,,,0.00,WUHU216HW,2013-09-24 00:47:00,
2013-09-23 20:48:00,58.1,46.0,29.96,North,0,0.0,0.0,64,0.00,,,0.00,WUHU216HW,2013-09-24 00:48:00,
2013-09-23 20:50:00,58.1,46.4,29.96,North,0,0.0,0.0,65,0.00,,,0.00,WUHU216HW,2013-09-24 00:50:00,
2013-09-23 20:51:00,58.1,46.4,29.96,North,0,0.0,0.0,65,0.00,,,0.00,WUHU216HW,2013-09-24 00:51:00,
2013-09-23 20:52:00,58.0,45.8,29.96,North,0,0.0,0.0,64,0.00,,,0.00,WUHU216HW,2013-09-24 00:52:00,
2013-09-23 20:53:00,58.0,46.3,29.96,North,0,0.0,0.0,65,0.00,,,0.00,WUHU216HW,2013-09-24 00:53:00,
2013-09-23 20:55:00,58.0,46.3,29.96,North,0,0.0,0.0,65,0.00,,,0.00,WUHU216HW,2013-09-24 00:55:00,
2013-09-23 20:56:00,58.0,46.3,29.96,North,0,0.0,0.0,65,0.00,,,0.00,WUHU216HW,2013-09-24 00:56:00,
2013-09-23 20:57:00,58.0,46.3,29.96,North,0,0.0,0.0,65,0.00,,,0.00,WUHU216HW,2013-09-24 00:57:00,
2013-09-23 20:58:00,58.0,46.3,29.96,North,0,0.0,0.0,65,0.00,,,0.00,WUHU216HW,2013-09-24 00:58:00,
2013-09-23 20:59:00,58.0,46.3,29.96,North,0,0.0,0.0,65,0.00,,,0.00,WUHU216HW,2013-09-24 00:59:00,
2013-09-23 21:01:00,58.0,46.3,29.97,North,0,0.0,0.0,65,0.00,,,0.00,WUHU216HW,2013-09-24 01:01:00,
2013-09-23 21:03:00,58.0,46.6,29.97,North,0,0.0,0.0,66,0.00,,,0.00,WUHU216HW,2013-09-24 01:03:00,
2013-09-23 21:04:00,58.0,46.3,29.97,North,0,0.0,0.0,65,0.00,,,0.00,WUHU216HW,2013-09-24 01:04:00,
2013-09-23 21:06:00,58.0,46.3,29.97,North,0,0.0,0.0,65,0.00,,,0.00,WUHU216HW,2013-09-24 01:06:00,
2013-09-23 21:09:00,58.0,46.6,29.97,North,0,0.0,0.0,66,0.00,,,0.00,WUHU216HW,2013-09-24 01:09:00,
2013-09-23 21:10:00,58.0,46.6,29.97,North,0,0.0,0.0,66,0.00,,,0.00,WUHU216HW,2013-09-24 01:10:00,
2013-09-23 21:11:00,58.0,46.6,29.97,North,0,0.0,0.0,66,0.00,,,0.00,WUHU216HW,2013-09-24 01:11:00,
2013-09-23 21:14:00,57.8,46.4,29.97,North,0,0.0,0.0,66,0.00,,,0.00,WUHU216HW,2013-09-24 01:14:00,
2013-09-23 21:15:00,57.8,46.4,29.97,North,0,0.0,0.0,66,0.00,,,0.00,WUHU216HW,2013-09-24 01:15:00,
2013-09-23 21:16:00,57.8,46.4,29.97,North,0,0.0,0.0,66,0.00,,,0.00,WUHU216HW,2013-09-24 01:16:00,
2013-09-23 21:17:00,57.8,46.4,29.97,North,0,0.0,0.0,66,0.00,,,0.00,WUHU216HW,2013-09-24 01:17:00,
2013-09-23 21:19:00,57.6,46.3,29.97,North,0,0.0,0.0,66,0.00,,,0.00,WUHU216HW,2013-09-24 01:19:00,
2013-09-23 21:20:00,57.6,46.3,29.97,North,0,0.0,0.0,66,0.00,,,0.00,WUHU216HW,2013-09-24 01:20:00,
2013-09-23 21:22:00,57.6,45.9,29.97,North,0,0.0,0.0,65,0.00,,,0.00,WUHU216HW,2013-09-24 01:22:00,
2013-09-23 21:24:00,57.4,46.1,29.97,North,0,0.0,0.0,66,0.00,,,0.00,WUHU216HW,2013-09-24 01:24:00,
2013-09-23 21:26:00,57.4,46.1,29.97,North,0,0.0,0.0,66,0.00,,,0.00,WUHU216HW,2013-09-24 01:26:00,
2013-09-23 21:27:00,57.2,45.9,29.97,North,0,0.0,0.0,66,0.00,,,0.00,WUHU216HW,2013-09-24 01:27:00,
2013-09-23 21:29:00,57.2,45.9,29.97,North,0,0.0,0.0,66,0.00,,,0.00,WUHU216HW,2013-09-24 01:29:00,
2013-09-23 21:31:00,57.2,46.4,29.97,North,0,0.0,0.0,67,0.00,,,0.00,WUHU216HW,2013-09-24 01:31:00,
2013-09-23 21:32:00,57.1,46.2,29.97,North,0,0.0,0.0,67,0.00,,,0.00,WUHU216HW,2013-09-24 01:32:00,
2013-09-23 21:35:00,57.1,46.2,29.97,North,0,0.0,0.0,67,0.00,,,0.00,WUHU216HW,2013-09-24 01:35:00,
2013-09-23 21:36:00,56.9,46.0,29.97,North,0,0.0,0.0,67,0.00,,,0.00,WUHU216HW,2013-09-24 01:36:00,
2013-09-23 21:38:00,56.9,46.0,29.97,North,0,0.0,0.0,67,0.00,,,0.00,WUHU216HW,2013-09-24 01:38:00,
2013-09-23 21:39:00,56.9,46.0,29.97,North,0,0.0,0.0,67,0.00,,,0.00,WUHU216HW,2013-09-24 01:39:00,
2013-09-23 21:41:00,56.9,46.5,29.97,North,0,0.0,0.0,68,0.00,,,0.00,WUHU216HW,2013-09-24 01:41:00,
2013-09-23 21:43:00,56.7,45.8,29.97,North,0,0.0,0.0,67,0.00,,,0.00,WUHU216HW,2013-09-24 01:43:00,
2013-09-23 21:45:00,56.7,46.3,29.97,North,0,0.0,0.0,68,0.00,,,0.00,WUHU216HW,2013-09-24 01:45:00,
2013-09-23 21:46:00,56.7,46.3,29.97,North,0,0.0,0.0,68,0.00,,,0.00,WUHU216HW,2013-09-24 01:46:00,
2013-09-23 21:48:00,56.7,46.3,29.97,North,0,0.0,0.0,68,0.00,,,0.00,WUHU216HW,2013-09-24 01:48:00,
2013-09-23 21:50:00,56.7,46.3,29.97,North,0,0.0,0.0,68,0.00,,,0.00,WUHU216HW,2013-09-24 01:50:00,
2013-09-23 21:51:00,56.5,46.1,29.97,North,0,0.0,0.0,68,0.00,,,0.00,WUHU216HW,2013-09-24 01:51:00,
2013-09-23 21:52:00,56.5,46.1,29.97,North,0,0.0,0.0,68,0.00,,,0.00,WUHU216HW,2013-09-24 01:52:00,
2013-09-23 21:53:00,56.5,46.1,29.97,North,0,0.0,0.0,68,0.00,,,0.00,WUHU216HW,2013-09-24 01:53:00,
2013-09-23 21:55:00,56.5,46.1,29.97,North,0,0.0,0.0,68,0.00,,,0.00,WUHU216HW,2013-09-24 01:55:00,
2013-09-23 21:57:00,56.5,46.1,29.98,North,0,0.0,0.0,68,0.00,,,0.00,WUHU216HW,2013-09-24 01:57:00,
2013-09-23 21:58:00,56.5,46.1,29.98,North,0,0.0,0.0,68,0.00,,,0.00,WUHU216HW,2013-09-24 01:58:00,
2013-09-23 22:00:00,56.5,45.6,29.97,North,0,0.0,0.0,67,0.00,,,0.00,WUHU216HW,2013-09-24 02:00:00,
2013-09-23 22:02:00,56.5,45.6,29.97,North,0,0.0,0.0,67,0.00,,,0.00,WUHU216HW,2013-09-24 02:02:00,
2013-09-23 22:03:00,56.3,45.9,29.97,North,0,0.0,0.0,68,0.00,,,0.00,WUHU216HW,2013-09-24 02:03:00,
2013-09-23 22:04:00,56.3,45.9,29.98,North,0,0.0,0.0,68,0.00,,,0.00,WUHU216HW,2013-09-24 02:04:00,
2013-09-23 22:06:00,56.2,45.7,29.98,North,0,0.0,0.0,68,0.00,,,0.00,WUHU216HW,2013-09-24 02:06:00,
2013-09-23 22:07:00,56.2,45.7,29.98,North,0,0.0,0.0,68,0.00,,,0.00,WUHU216HW,2013-09-24 02:07:00,
2013-09-23 22:08:00,56.2,46.2,29.98,North,0,0.0,0.0,69,0.00,,,0.00,WUHU216HW,2013-09-24 02:08:00,
2013-09-23 22:09:00,56.2,46.2,29.98,North,0,0.0,0.0,69,0.00,,,0.00,WUHU216HW,2013-09-24 02:09:00,
2013-09-23 22:11:00,56.2,46.2,29.98,North,0,0.0,0.0,69,0.00,,,0.00,WUHU216HW,2013-09-24 02:11:00,
2013-09-23 22:12:00,56.0,45.5,29.98,North,0,0.0,0.0,68,0.00,,,0.00,WUHU216HW,2013-09-24 02:12:00,
2013-09-23 22:13:00,56.0,45.5,29.98,North,0,0.0,0.0,68,0.00,,,0.00,WUHU216HW,2013-09-24 02:13:00,
2013-09-23 22:14:00,56.0,46.0,29.98,North,0,0.0,0.0,69,0.00,,,0.00,WUHU216HW,2013-09-24 02:14:00,
2013-09-23 22:16:00,56.0,46.0,29.97,North,0,0.0,0.0,69,0.00,,,0.00,WUHU216HW,2013-09-24 02:16:00,
2013-09-23 22:17:00,55.8,45.8,29.97,North,0,0.0,0.0,69,0.00,,,0.00,WUHU216HW,2013-09-24 02:17:00,
2013-09-23 22:18:00,55.8,45.8,29.97,North,0,0.0,0.0,69,0.00,,,0.00,WUHU216HW,2013-09-24 02:18:00,
2013-09-23 22:19:00,55.8,45.8,29.97,North,0,0.0,0.0,69,0.00,,,0.00,WUHU216HW,2013-09-24 02:19:00,
2013-09-23 22:20:00,55.8,45.8,29.97,North,0,0.0,0.0,69,0.00,,,0.00,WUHU216HW,2013-09-24 02:20:00,
2013-09-23 22:21:00,55.8,45.8,29.97,North,0,0.0,0.0,69,0.00,,,0.00,WUHU216HW,2013-09-24 02:21:00,
2013-09-23 22:22:00,55.8,45.8,29.97,North,0,0.0,0.0,69,0.00,,,0.00,WUHU216HW,2013-09-24 02:22:00,
2013-09-23 22:23:00,55.8,45.8,29.98,North,0,0.0,0.0,69,0.00,,,0.00,WUHU216HW,2013-09-24 02:23:00,
2013-09-23 22:24:00,55.8,45.8,29.98,North,0,0.0,0.0,69,0.00,,,0.00,WUHU216HW,2013-09-24 02:24:00,
2013-09-23 22:25:00,55.8,45.8,29.98,North,0,0.0,0.0,69,0.00,,,0.00,WUHU216HW,2013-09-24 02:25:00,
2013-09-23 22:26:00,55.8,45.8,29.97,North,0,0.0,0.0,69,0.00,,,0.00,WUHU216HW,2013-09-24 02:26:00,
2013-09-23 22:28:00,55.8,45.4,29.98,North,0,0.0,0.0,68,0.00,,,0.00,WUHU216HW,2013-09-24 02:28:00,
2013-09-23 22:29:00,55.8,45.4,29.98,North,0,0.0,0.0,68,0.00,,,0.00,WUHU216HW,2013-09-24 02:29:00,
2013-09-23 22:30:00,55.8,45.4,29.98,North,0,0.0,0.0,68,0.00,,,0.00,WUHU216HW,2013-09-24 02:30:00,
2013-09-23 22:31:00,55.8,45.4,29.98,North,0,0.0,0.0,68,0.00,,,0.00,WUHU216HW,2013-09-24 02:31:00,
2013-09-23 22:33:00,55.8,45.4,29.98,North,0,0.0,0.0,68,0.00,,,0.00,WUHU216HW,2013-09-24 02:33:00,
2013-09-23 22:34:00,55.8,45.4,29.98,North,0,0.0,0.0,68,0.00,,,0.00,WUHU216HW,2013-09-24 02:34:00,
2013-09-23 22:36:00,55.6,45.3,29.98,North,0,0.0,0.0,68,0.00,,,0.00,WUHU216HW,2013-09-24 02:36:00,
2013-09-23 22:38:00,55.6,45.3,29.98,North,0,0.0,0.0,68,0.00,,,0.00,WUHU216HW,2013-09-24 02:38:00,
2013-09-23 22:39:00,55.6,45.3,29.98,North,0,0.0,0.0,68,0.00,,,0.00,WUHU216HW,2013-09-24 02:39:00,
2013-09-23 22:40:00,55.6,45.3,29.98,North,0,0.0,0.0,68,0.00,,,0.00,WUHU216HW,2013-09-24 02:40:00,
2013-09-23 22:41:00,55.6,45.3,29.98,North,0,0.0,0.0,68,0.00,,,0.00,WUHU216HW,2013-09-24 02:41:00,
2013-09-23 22:42:00,55.6,45.3,29.98,North,0,0.0,0.0,68,0.00,,,0.00,WUHU216HW,2013-09-24 02:42:00,
2013-09-23 22:43:00,55.6,45.3,29.98,North,0,0.0,0.0,68,0.00,,,0.00,WUHU216HW,2013-09-24 02:43:00,
2013-09-23 22:44:00,55.6,45.3,29.98,North,0,0.0,0.0,68,0.00,,,0.00,WUHU216HW,2013-09-24 02:44:00,
2013-09-23 22:45:00,55.6,45.3,29.98,North,0,0.0,0.0,68,0.00,,,0.00,WUHU216HW,2013-09-24 02:45:00,
2013-09-23 22:46:00,55.4,45.5,29.98,North,0,0.0,0.0,69,0.00,,,0.00,WUHU216HW,2013-09-24 02:46:00,
2013-09-23 22:47:00,55.4,45.1,29.98,North,0,0.0,0.0,68,0.00,,,0.00,WUHU216HW,2013-09-24 02:47:00,
2013-09-23 22:48:00,55.4,45.5,29.98,North,0,0.0,0.0,69,0.00,,,0.00,WUHU216HW,2013-09-24 02:48:00,
2013-09-23 22:50:00,55.4,45.1,29.98,North,0,0.0,0.0,68,0.00,,,0.00,WUHU216HW,2013-09-24 02:50:00,
2013-09-23 22:51:00,55.4,45.1,29.98,North,0,0.0,0.0,68,0.00,,,0.00,WUHU216HW,2013-09-24 02:51:00,
2013-09-23 22:52:00,55.4,45.1,29.98,North,0,0.0,0.0,68,0.00,,,0.00,WUHU216HW,2013-09-24 02:52:00,
2013-09-23 22:54:00,55.4,45.5,29.98,North,0,0.0,0.0,69,0.00,,,0.00,WUHU216HW,2013-09-24 02:54:00,
2013-09-23 22:55:00,55.4,45.5,29.98,North,0,0.0,0.0,69,0.00,,,0.00,WUHU216HW,2013-09-24 02:55:00,
2013-09-23 22:56:00,55.3,45.3,29.98,North,0,0.0,0.0,69,0.00,,,0.00,WUHU216HW,2013-09-24 02:56:00,
2013-09-23 22:57:00,55.3,45.3,29.98,North,0,0.0,0.0,69,0.00,,,0.00,WUHU216HW,2013-09-24 02:57:00,
2013-09-23 22:59:00,55.3,44.9,29.98,North,0,0.0,0.0,68,0.00,,,0.00,WUHU216HW,2013-09-24 02:59:00,
2013-09-23 23:00:00,55.3,44.9,29.98,North,0,0.0,0.0,68,0.00,,,0.00,WUHU216HW,2013-09-24 03:00:00,
2013-09-23 23:01:00,55.3,45.3,29.98,North,0,0.0,0.0,69,0.00,,,0.00,WUHU216HW,2013-09-24 03:01:00,
2013-09-23 23:02:00,55.3,45.3,29.98,North,0,0.0,0.0,69,0.00,,,0.00,WUHU216HW,2013-09-24 03:02:00,
2013-09-23 23:04:00,55.1,45.1,29.98,North,0,0.0,0.0,69,0.00,,,0.00,WUHU216HW,2013-09-24 03:04:00,
2013-09-23 23:05:00,55.1,44.7,29.98,North,0,0.0,0.0,68,0.00,,,0.00,WUHU216HW,2013-09-24 03:05:00,
2013-09-23 23:06:00,55.1,45.1,29.98,North,0,0.0,0.0,69,0.00,,,0.00,WUHU216HW,2013-09-24 03:06:00,
2013-09-23 23:07:00,55.1,45.1,29.98,North,0,0.0,0.0,69,0.00,,,0.00,WUHU216HW,2013-09-24 03:07:00,
2013-09-23 23:10:00,55.1,45.1,29.98,North,0,0.0,0.0,69,0.00,,,0.00,WUHU216HW,2013-09-24 03:10:00,
2013-09-23 23:11:00,55.1,45.1,29.98,North,0,0.0,0.0,69,0.00,,,0.00,WUHU216HW,2013-09-24 03:11:00,
2013-09-23 23:12:00,55.1,45.1,29.98,North,0,0.0,0.0,69,0.00,,,0.00,WUHU216HW,2013-09-24 03:12:00,
2013-09-23 23:13:00,54.9,45.4,29.98,North,0,0.0,0.0,70,0.00,,,0.00,WUHU216HW,2013-09-24 03:13:00,
2013-09-23 23:15:00,54.9,45.4,29.98,North,0,0.0,0.0,70,0.00,,,0.00,WUHU216HW,2013-09-24 03:15:00,
2013-09-23 23:16:00,54.9,45.4,29.98,North,0,0.0,0.0,70,0.00,,,0.00,WUHU216HW,2013-09-24 03:16:00,
2013-09-23 23:17:00,54.9,45.4,29.98,North,0,0.0,0.0,70,0.00,,,0.00,WUHU216HW,2013-09-24 03:17:00,
2013-09-23 23:18:00,54.9,45.4,29.98,North,0,0.0,0.0,70,0.00,,,0.00,WUHU216HW,2013-09-24 03:18:00,
2013-09-23 23:20:00,54.7,45.2,29.98,North,0,0.0,0.0,70,0.00,,,0.00,WUHU216HW,2013-09-24 03:20:00,
2013-09-23 23:21:00,54.7,45.2,29.98,North,0,0.0,0.0,70,0.00,,,0.00,WUHU216HW,2013-09-24 03:21:00,
2013-09-23 23:22:00,54.7,45.2,29.98,North,0,0.0,0.0,70,0.00,,,0.00,WUHU216HW,2013-09-24 03:22:00,
2013-09-23 23:23:00,54.7,44.7,29.97,North,0,0.0,0.0,69,0.00,,,0.00,WUHU216HW,2013-09-24 03:23:00,
2013-09-23 23:25:00,54.5,44.6,29.97,North,0,0.0,0.0,69,0.00,,,0.00,WUHU216HW,2013-09-24 03:25:00,
2013-09-23 23:27:00,54.5,45.0,29.97,North,0,0.0,0.0,70,0.00,,,0.00,WUHU216HW,2013-09-24 03:27:00,
2013-09-23 23:29:00,54.5,45.0,29.97,North,0,0.0,0.0,70,0.00,,,0.00,WUHU216HW,2013-09-24 03:29:00,
2013-09-23 23:30:00,54.4,44.8,29.97,North,0,0.0,0.0,70,0.00,,,0.00,WUHU216HW,2013-09-24 03:30:00,
2013-09-23 23:31:00,54.4,44.8,29.97,North,0,0.0,0.0,70,0.00,,,0.00,WUHU216HW,2013-09-24 03:31:00,
2013-09-23 23:32:00,54.4,44.8,29.97,North,0,0.0,0.0,70,0.00,,,0.00,WUHU216HW,2013-09-24 03:32:00,
2013-09-23 23:34:00,54.4,45.2,29.97,North,0,0.0,0.0,71,0.00,,,0.00,WUHU216HW,2013-09-24 03:34:00,
2013-09-23 23:36:00,54.4,45.2,29.97,North,0,0.0,0.0,71,0.00,,,0.00,WUHU216HW,2013-09-24 03:36:00,
2013-09-23 23:37:00,54.4,45.2,29.97,North,0,0.0,0.0,71,0.00,,,0.00,WUHU216HW,2013-09-24 03:37:00,
2013-09-23 23:39:00,54.4,45.2,29.97,North,0,0.0,0.0,71,0.00,,,0.00,WUHU216HW,2013-09-24 03:39:00,
2013-09-23 23:41:00,54.2,45.0,29.97,North,0,0.0,0.0,71,0.00,,,0.00,WUHU216HW,2013-09-24 03:41:00,
2013-09-23 23:42:00,54.2,45.0,29.97,North,0,0.0,0.0,71,0.00,,,0.00,WUHU216HW,2013-09-24 03:42:00,
2013-09-23 23:44:00,54.0,44.5,29.97,North,0,0.0,0.0,70,0.00,,,0.00,WUHU216HW,2013-09-24 03:44:00,
2013-09-23 23:46:00,54.0,44.5,29.97,North,0,0.0,0.0,70,0.00,,,0.00,WUHU216HW,2013-09-24 03:46:00,
2013-09-23 23:47:00,54.0,44.8,29.98,North,0,0.0,0.0,71,0.00,,,0.00,WUHU216HW,2013-09-24 03:47:00,
2013-09-23 23:49:00,54.0,44.8,29.98,North,0,0.0,0.0,71,0.00,,,0.00,WUHU216HW,2013-09-24 03:49:00,
2013-09-23 23:51:00,53.8,44.7,29.97,North,0,0.0,0.0,71,0.00,,,0.00,WUHU216HW,2013-09-24 03:51:00,
2013-09-23 23:52:00,53.8,44.7,29.98,North,0,0.0,0.0,71,0.00,,,0.00,WUHU216HW,2013-09-24 03:52:00,
2013-09-23 23:55:00,53.6,44.5,29.97,North,0,0.0,0.0,71,0.00,,,0.00,WUHU216HW,2013-09-24 03:55:00,
2013-09-23 23:56:00,53.6,44.5,29.97,North,0,0.0,0.0,71,0.00,,,0.00,WUHU216HW,2013-09-24 03:56:00,
2013-09-23 23:58:00,53.6,44.8,29.98,North,0,0.0,0.0,72,0.00,,,0.00,WUHU216HW,2013-09-24 03:58:00,